AAL1024 KMCO-LOWW

Flight info

Callsign AAL1024
Flight time 9h 56m
Altitude 31000
Route MZULO3 LENDS COACH EAAGL HAAYY AZEZU KN57E LACKS JOBOC 4160N 4250N 4340N 4330N 4320N MUDOS ROXER NOLSA MARIO SINDO PIVUS DIBER NETUP STP RAPED PIGOS EKSID NOSTA LUKIM MALUG ARALD ABTAN
Aircraft B77W/H-SDE1E2E3FGHIJ2J3J4J5M1RWXY/LB1D1

Departure

Time 2026-04-25 14:10
Airport Orlando International Airport (KMCO)

Arrival

Time 2026-04-26 00:06
Airport Vienna International Airport (LOWW)
Time Latitude Longitude Altitude Speed Heading
2026-04-25 12:51 28.42900 -81.31551 99 ft 0 kts 192°
2026-04-25 13:42 28.42916 -81.31547 99 ft 4 kts 190°
2026-04-25 13:42 28.42936 -81.31543 99 ft 4 kts 215°
2026-04-25 13:42 28.42944 -81.31523 99 ft 4 kts 279°
2026-04-25 13:42 28.42937 -81.31496 99 ft 1 kts 294°
2026-04-25 13:47 28.42941 -81.31507 99 ft 6 kts 294°
2026-04-25 13:47 28.42951 -81.31583 101 ft 8 kts 259°
2026-04-25 13:47 28.42941 -81.31642 100 ft 8 kts 259°
2026-04-25 13:47 28.42939 -81.31702 104 ft 8 kts 276°
2026-04-25 13:48 28.42957 -81.31758 104 ft 8 kts 297°
2026-04-25 13:48 28.42972 -81.31815 105 ft 8 kts 256°
2026-04-25 13:48 28.42924 -81.31837 104 ft 8 kts 178°
2026-04-25 13:48 28.42868 -81.31835 104 ft 8 kts 180°
2026-04-25 13:49 28.42831 -81.31835 103 ft 8 kts 180°
2026-04-25 13:49 28.42757 -81.31835 107 ft 12 kts 180°
2026-04-25 13:49 28.42621 -81.31834 107 ft 17 kts 180°
2026-04-25 13:49 28.42542 -81.31834 107 ft 16 kts 179°
2026-04-25 13:50 28.42431 -81.31833 107 ft 16 kts 180°
2026-04-25 13:50 28.42349 -81.31792 108 ft 12 kts 106°
2026-04-25 13:50 28.42348 -81.31697 104 ft 12 kts 89°
2026-04-25 13:50 28.42348 -81.31603 102 ft 12 kts 89°
2026-04-25 13:51 28.42349 -81.31524 102 ft 8 kts 90°
2026-04-25 13:51 28.42349 -81.31461 101 ft 9 kts 90°
2026-04-25 13:51 28.42350 -81.31373 100 ft 13 kts 90°
2026-04-25 13:51 28.42350 -81.31284 99 ft 8 kts 91°
2026-04-25 13:52 28.42346 -81.31224 99 ft 8 kts 95°
2026-04-25 13:52 28.42336 -81.31148 100 ft 13 kts 101°
2026-04-25 13:52 28.42317 -81.31029 99 ft 17 kts 94°
2026-04-25 13:52 28.42319 -81.30898 99 ft 17 kts 85°
2026-04-25 13:53 28.42329 -81.30768 102 ft 17 kts 85°
2026-04-25 13:53 28.42338 -81.30640 102 ft 17 kts 85°
2026-04-25 13:53 28.42348 -81.30506 99 ft 17 kts 85°
2026-04-25 13:53 28.42355 -81.30369 99 ft 17 kts 87°
2026-04-25 13:54 28.42359 -81.30232 102 ft 17 kts 89°
2026-04-25 13:54 28.42361 -81.30095 99 ft 17 kts 89°
2026-04-25 13:54 28.42362 -81.29958 99 ft 17 kts 89°
2026-04-25 13:54 28.42364 -81.29853 99 ft 11 kts 87°
2026-04-25 13:55 28.42411 -81.29794 100 ft 11 kts 17°
2026-04-25 13:55 28.42495 -81.29795 102 ft 15 kts 358°
2026-04-25 13:55 28.42606 -81.29797 102 ft 16 kts 359°
2026-04-25 13:55 28.42719 -81.29798 101 ft 16 kts 359°
2026-04-25 13:56 28.42830 -81.29799 101 ft 16 kts 359°
2026-04-25 13:56 28.42943 -81.29800 100 ft 16 kts 359°
2026-04-25 13:56 28.43055 -81.29801 101 ft 16 kts 359°
2026-04-25 13:56 28.43147 -81.29801 102 ft 10 kts 359°
2026-04-25 13:57 28.43212 -81.29802 100 ft 7 kts 359°
2026-04-25 13:57 28.43236 -81.29802 102 ft 0 kts 359°
2026-04-25 14:04 28.43237 -81.29802 99 ft 1 kts 359°
2026-04-25 14:05 28.43264 -81.29803 101 ft 7 kts 359°
2026-04-25 14:05 28.43317 -81.29803 99 ft 8 kts 359°
2026-04-25 14:05 28.43372 -81.29804 100 ft 8 kts 359°
2026-04-25 14:05 28.43426 -81.29805 102 ft 8 kts 359°
2026-04-25 14:06 28.43451 -81.29805 99 ft 0 kts 359°
2026-04-25 14:06 28.43452 -81.29805 99 ft 1 kts 359°
2026-04-25 14:06 28.43482 -81.29806 100 ft 9 kts 359°
2026-04-25 14:06 28.43542 -81.29799 100 ft 9 kts 32°
2026-04-25 14:07 28.43551 -81.29733 102 ft 8 kts 89°
2026-04-25 14:07 28.43551 -81.29717 100 ft 0 kts 90°
2026-04-25 14:08 28.43551 -81.29710 100 ft 4 kts 90°
2026-04-25 14:08 28.43551 -81.29644 103 ft 11 kts 90°
2026-04-25 14:08 28.43543 -81.29600 103 ft 5 kts 136°
2026-04-25 14:08 28.43513 -81.29589 103 ft 4 kts 173°
2026-04-25 14:09 28.43508 -81.29589 102 ft 0 kts 178°
2026-04-25 14:09 28.43505 -81.29589 102 ft 4 kts 178°
2026-04-25 14:09 28.43447 -81.29587 103 ft 22 kts 179°
2026-04-25 14:10 28.42802 -81.29579 102 ft 120 kts 179°
2026-04-25 14:10 28.41741 -81.29569 143 ft 178 kts 179°
2026-04-25 14:10 28.40460 -81.29548 719 ft 187 kts 179°
2026-04-25 14:10 28.39167 -81.29502 1382 ft 192 kts 177°
2026-04-25 14:11 28.37843 -81.29020 1388 ft 210 kts 147°
2026-04-25 14:11 28.36589 -81.28029 1608 ft 230 kts 148°
2026-04-25 14:11 28.35231 -81.26956 1851 ft 246 kts 137°
2026-04-25 14:11 28.34393 -81.25224 2235 ft 261 kts 99°
2026-04-25 14:12 28.34612 -81.23221 2824 ft 262 kts 68°
2026-04-25 14:12 28.35319 -81.21296 3394 ft 267 kts 69°
2026-04-25 14:12 28.35987 -81.19322 4092 ft 268 kts 69°
2026-04-25 14:12 28.36642 -81.17325 4796 ft 270 kts 69°
2026-04-25 14:13 28.37296 -81.15312 5455 ft 272 kts 70°
2026-04-25 14:13 28.37950 -81.13283 6107 ft 275 kts 70°
2026-04-25 14:13 28.38598 -81.11262 6722 ft 277 kts 70°
2026-04-25 14:13 28.39260 -81.09186 7278 ft 282 kts 69°
2026-04-25 14:14 28.39933 -81.07070 7841 ft 286 kts 69°
2026-04-25 14:14 28.40614 -81.04922 8434 ft 289 kts 69°
2026-04-25 14:14 28.41298 -81.02760 9025 ft 292 kts 69°
2026-04-25 14:14 28.41990 -81.00571 9626 ft 295 kts 69°
2026-04-25 14:15 28.42687 -80.98362 10155 ft 300 kts 68°
2026-04-25 14:15 28.42918 -80.97631 10297 ft 303 kts 68°
2026-04-25 14:15 28.44176 -80.93644 10575 ft 336 kts 69°
2026-04-25 14:15 28.44979 -80.91096 10727 ft 356 kts 69°
2026-04-25 14:16 28.45838 -80.88365 10954 ft 375 kts 69°
2026-04-25 14:16 28.46729 -80.85530 11403 ft 385 kts 69°
2026-04-25 14:16 28.47555 -80.82602 11994 ft 393 kts 74°
2026-04-25 14:16 28.48074 -80.79537 12698 ft 397 kts 81°
2026-04-25 14:17 28.48391 -80.76566 13355 ft 401 kts 82°
2026-04-25 14:17 28.48733 -80.73316 14030 ft 406 kts 82°
2026-04-25 14:17 28.49073 -80.70107 14628 ft 411 kts 81°
2026-04-25 14:17 28.49422 -80.66865 15250 ft 416 kts 81°
2026-04-25 14:18 28.49781 -80.63575 15846 ft 420 kts 81°
2026-04-25 14:18 28.50145 -80.60261 16443 ft 424 kts 81°
2026-04-25 14:18 28.50509 -80.56955 17040 ft 429 kts 81°
2026-04-25 14:18 28.50882 -80.53571 17643 ft 433 kts 81°
2026-04-25 14:19 28.51261 -80.50121 18170 ft 440 kts 81°
2026-04-25 14:19 28.51639 -80.46682 18675 ft 444 kts 81°
2026-04-25 14:19 28.52021 -80.43184 19264 ft 446 kts 81°
2026-04-25 14:19 28.52404 -80.39668 19863 ft 448 kts 81°
2026-04-25 14:20 28.52788 -80.36143 20425 ft 451 kts 81°
2026-04-25 14:20 28.52918 -80.34949 20609 ft 452 kts 81°
2026-04-25 14:20 28.53844 -80.29075 21473 ft 455 kts 72°
2026-04-25 14:20 28.54807 -80.25642 21988 ft 456 kts 66°
2026-04-25 14:21 28.56054 -80.22319 22505 ft 458 kts 64°
2026-04-25 14:21 28.57345 -80.18994 23022 ft 461 kts 63°
2026-04-25 14:21 28.58633 -80.15676 23540 ft 464 kts 64°
2026-04-25 14:21 28.59933 -80.12301 24002 ft 465 kts 64°
2026-04-25 14:22 28.61229 -80.08905 24493 ft 466 kts 65°
2026-04-25 14:22 28.62506 -80.05542 24930 ft 468 kts 65°
2026-04-25 14:22 28.63801 -80.02116 25346 ft 470 kts 65°
2026-04-25 14:22 28.65099 -79.98676 25756 ft 473 kts 65°
2026-04-25 14:23 28.66399 -79.95227 26159 ft 475 kts 65°
2026-04-25 14:23 28.67706 -79.91755 26565 ft 477 kts 65°
2026-04-25 14:23 28.69015 -79.88275 26956 ft 479 kts 65°
2026-04-25 14:23 28.70317 -79.84812 27343 ft 481 kts 65°
2026-04-25 14:24 28.71640 -79.81292 27713 ft 483 kts 65°
2026-04-25 14:24 28.72964 -79.77763 28052 ft 486 kts 65°
2026-04-25 14:24 28.74293 -79.74220 28382 ft 488 kts 65°
2026-04-25 14:24 28.75635 -79.70637 28715 ft 490 kts 65°
2026-04-25 14:25 28.76975 -79.67056 29046 ft 492 kts 65°
2026-04-25 14:25 28.78325 -79.63446 29362 ft 494 kts 65°
2026-04-25 14:25 28.79673 -79.59841 29659 ft 495 kts 65°
2026-04-25 14:26 28.82935 -79.52935 30241 ft 494 kts 54°
2026-04-25 14:26 28.84921 -79.49796 30556 ft 493 kts 52°
2026-04-25 14:26 28.86944 -79.46646 30876 ft 492 kts 52°
2026-04-25 14:27 28.91004 -79.40288 31006 ft 497 kts 52°
2026-04-25 14:27 28.95029 -79.33898 30988 ft 492 kts 53°
2026-04-25 14:28 28.98987 -79.27573 30998 ft 491 kts 53°
2026-04-25 14:28 29.02962 -79.21210 31002 ft 491 kts 53°
2026-04-25 14:29 29.06931 -79.14850 31001 ft 492 kts 53°
2026-04-25 14:29 29.10902 -79.08478 31007 ft 492 kts 53°
2026-04-25 14:30 29.14885 -79.02078 31000 ft 493 kts 53°
2026-04-25 14:30 29.20858 -78.92459 31000 ft 495 kts 53°
2026-04-25 14:31 29.24822 -78.86065 31001 ft 495 kts 53°
2026-04-25 14:31 29.28809 -78.79621 30999 ft 495 kts 53°
2026-04-25 14:32 29.32794 -78.73173 31000 ft 495 kts 53°
2026-04-25 14:32 29.37475 -78.67528 31011 ft 488 kts 33°
2026-04-25 14:33 29.42442 -78.64535 30995 ft 484 kts 17°
2026-04-25 14:33 29.49905 -78.61758 30991 ft 486 kts 16°
2026-04-25 14:34 29.55299 -78.59735 30996 ft 487 kts 17°
2026-04-25 14:34 29.61743 -78.57260 31009 ft 488 kts 17°
2026-04-25 14:35 29.68162 -78.54762 30999 ft 489 kts 17°
2026-04-25 14:35 29.74613 -78.52244 30996 ft 489 kts 17°
2026-04-25 14:36 29.81018 -78.49742 31000 ft 488 kts 17°
2026-04-25 14:36 29.87457 -78.47226 31000 ft 487 kts 17°
2026-04-25 14:37 29.93839 -78.44729 30998 ft 487 kts 17°
2026-04-25 14:37 30.00250 -78.42217 30996 ft 486 kts 17°
2026-04-25 14:38 30.06666 -78.39701 30996 ft 486 kts 17°
2026-04-25 14:38 30.13068 -78.37185 30995 ft 486 kts 17°
2026-04-25 14:39 30.19484 -78.34662 30995 ft 486 kts 17°
2026-04-25 14:39 30.25855 -78.32152 30993 ft 486 kts 17°
2026-04-25 14:40 30.32272 -78.29620 30994 ft 487 kts 17°
2026-04-25 14:40 30.38660 -78.27097 30996 ft 487 kts 17°
2026-04-25 14:41 30.45072 -78.24560 31000 ft 487 kts 17°
2026-04-25 14:41 30.51502 -78.22013 30995 ft 487 kts 18°
2026-04-25 14:42 30.56835 -78.19898 30991 ft 487 kts 18°
2026-04-25 14:42 30.64297 -78.16934 30990 ft 487 kts 18°
2026-04-25 14:43 30.70713 -78.14382 30993 ft 486 kts 18°
2026-04-25 14:43 30.77132 -78.11825 30987 ft 486 kts 18°
2026-04-25 14:44 30.83502 -78.09283 30988 ft 486 kts 18°
2026-04-25 14:44 30.89918 -78.06720 30987 ft 486 kts 18°
2026-04-25 14:45 30.96285 -78.04172 30987 ft 486 kts 18°
2026-04-25 14:45 31.02691 -78.01605 30986 ft 486 kts 18°
2026-04-25 14:46 31.09021 -77.98783 30982 ft 487 kts 25°
2026-04-25 14:46 31.14848 -77.94823 30992 ft 488 kts 31°
2026-04-25 14:47 31.19637 -77.91304 30980 ft 489 kts 31°
2026-04-25 14:47 31.26408 -77.86362 30987 ft 490 kts 31°
2026-04-25 14:48 31.32192 -77.82173 30978 ft 491 kts 31°
2026-04-25 14:48 31.38019 -77.77955 30984 ft 491 kts 31°
2026-04-25 14:49 31.43798 -77.73766 30983 ft 491 kts 31°
2026-04-25 14:49 31.49612 -77.69543 30986 ft 491 kts 31°
2026-04-25 14:50 31.55410 -77.65324 30985 ft 490 kts 31°
2026-04-25 14:50 31.61166 -77.61131 30980 ft 489 kts 31°
2026-04-25 14:51 31.66953 -77.56908 30979 ft 489 kts 31°
2026-04-25 14:51 31.72732 -77.52685 30981 ft 489 kts 31°
2026-04-25 14:52 31.78523 -77.48447 30979 ft 489 kts 31°
2026-04-25 14:52 31.83302 -77.44945 30978 ft 489 kts 31°
2026-04-25 14:53 31.90063 -77.39983 30977 ft 489 kts 31°
2026-04-25 14:53 31.95811 -77.35756 30981 ft 489 kts 31°
2026-04-25 14:54 32.01599 -77.31495 30976 ft 490 kts 32°
2026-04-25 14:54 32.07388 -77.27226 30979 ft 490 kts 32°
2026-04-25 14:55 32.13138 -77.22980 30975 ft 490 kts 32°
2026-04-25 14:55 32.18930 -77.18695 30974 ft 490 kts 32°
2026-04-25 14:56 32.24699 -77.14445 30970 ft 491 kts 31°
2026-04-25 14:56 32.30541 -77.10219 30975 ft 492 kts 31°
2026-04-25 14:57 32.36388 -77.05997 30975 ft 493 kts 31°
2026-04-25 14:57 32.42248 -77.01748 30974 ft 493 kts 31°
2026-04-25 14:58 32.48099 -76.97491 30969 ft 493 kts 31°
2026-04-25 14:58 32.53909 -76.93255 30973 ft 493 kts 31°
2026-04-25 14:59 32.59757 -76.88985 30970 ft 493 kts 31°
2026-04-25 14:59 32.65617 -76.84700 30969 ft 493 kts 31°
2026-04-25 15:00 32.71428 -76.80445 30971 ft 493 kts 32°
2026-04-25 15:00 32.77285 -76.76150 30970 ft 494 kts 32°
2026-04-25 15:01 32.83144 -76.71846 30967 ft 494 kts 32°
2026-04-25 15:01 32.88965 -76.67563 30968 ft 494 kts 32°
2026-04-25 15:02 32.94825 -76.63245 30968 ft 494 kts 32°
2026-04-25 15:02 33.00646 -76.58948 30970 ft 494 kts 31°
2026-04-25 15:03 33.06506 -76.54617 30966 ft 495 kts 31°
2026-04-25 15:03 33.12333 -76.50302 30970 ft 495 kts 31°
2026-04-25 15:04 33.18194 -76.45957 30962 ft 495 kts 31°
2026-04-25 15:04 33.24044 -76.41611 30960 ft 495 kts 31°
2026-04-25 15:05 33.29907 -76.37250 30961 ft 496 kts 31°
2026-04-25 15:06 33.38674 -76.30715 30961 ft 496 kts 31°
2026-04-25 15:06 33.44547 -76.26328 30962 ft 496 kts 31°
2026-04-25 15:07 33.50373 -76.21969 30960 ft 496 kts 31°
2026-04-25 15:07 33.56248 -76.17567 30955 ft 496 kts 32°
2026-04-25 15:08 33.62111 -76.13167 30954 ft 496 kts 32°
2026-04-25 15:08 33.67917 -76.08802 30953 ft 496 kts 31°
2026-04-25 15:09 33.73765 -76.04399 30952 ft 495 kts 32°
2026-04-25 15:09 33.82538 -75.97780 30951 ft 495 kts 32°
2026-04-25 15:10 33.88330 -75.93400 30953 ft 494 kts 32°
2026-04-25 15:11 33.97061 -75.86786 30951 ft 493 kts 32°
2026-04-25 15:11 34.02864 -75.82380 30943 ft 492 kts 32°
2026-04-25 15:12 34.11541 -75.75779 30941 ft 492 kts 32°
2026-04-25 15:12 34.15416 -75.72827 30947 ft 492 kts 32°
2026-04-25 15:13 34.26015 -75.64733 30936 ft 491 kts 32°
2026-04-25 15:14 34.31772 -75.60327 30939 ft 491 kts 32°
2026-04-25 15:14 34.37559 -75.55890 30940 ft 491 kts 32°
2026-04-25 15:15 34.43295 -75.51483 30938 ft 490 kts 31°
2026-04-25 15:15 34.49065 -75.47045 30932 ft 490 kts 31°
2026-04-25 15:16 34.54791 -75.42634 30929 ft 489 kts 32°
2026-04-25 15:16 34.63420 -75.35970 30935 ft 488 kts 31°
2026-04-25 15:17 34.71990 -75.29339 30927 ft 488 kts 31°
2026-04-25 15:18 34.77723 -75.24894 30921 ft 488 kts 31°
2026-04-25 15:18 34.85351 -75.18965 30925 ft 489 kts 30°
2026-04-25 15:19 34.90131 -75.15243 30928 ft 489 kts 31°
2026-04-25 15:19 34.96811 -75.10032 30919 ft 490 kts 31°
2026-04-25 15:20 35.02575 -75.05529 30927 ft 490 kts 31°
2026-04-25 15:20 35.08271 -75.01071 30923 ft 489 kts 31°
2026-04-25 15:21 35.14004 -74.96575 30920 ft 489 kts 31°
2026-04-25 15:21 35.19746 -74.92065 30921 ft 489 kts 31°
2026-04-25 15:22 35.25438 -74.87588 30923 ft 489 kts 31°
2026-04-25 15:22 35.31158 -74.83052 31147 ft 491 kts 33°
2026-04-25 15:23 35.33932 -74.80594 31438 ft 491 kts 34°
2026-04-25 15:23 35.36659 -74.78092 31812 ft 489 kts 35°
2026-04-25 15:23 35.39336 -74.75607 32138 ft 487 kts 35°
2026-04-25 15:23 35.42034 -74.73098 32438 ft 486 kts 35°
2026-04-25 15:24 35.44730 -74.70593 32710 ft 486 kts 35°
2026-04-25 15:24 35.47437 -74.68084 32876 ft 489 kts 35°
2026-04-25 15:24 35.51965 -74.63900 32911 ft 490 kts 34°
2026-04-25 15:25 35.58275 -74.58070 32908 ft 484 kts 34°
2026-04-25 15:25 35.63664 -74.53084 32923 ft 483 kts 34°
2026-04-25 15:26 35.69024 -74.48116 32921 ft 483 kts 34°
2026-04-25 15:26 35.74370 -74.43152 32937 ft 484 kts 34°
2026-04-25 15:27 35.79744 -74.38152 32919 ft 485 kts 34°
2026-04-25 15:28 35.87848 -74.30596 32916 ft 486 kts 34°
2026-04-25 15:28 35.93247 -74.25551 32912 ft 487 kts 34°
2026-04-25 15:29 35.98621 -74.20520 32927 ft 487 kts 34°
2026-04-25 15:29 36.04017 -74.15460 32913 ft 487 kts 34°
2026-04-25 15:30 36.09398 -74.10405 32923 ft 487 kts 34°
2026-04-25 15:30 36.14795 -74.05326 32924 ft 486 kts 34°
2026-04-25 15:31 36.20150 -74.00278 32931 ft 486 kts 33°
2026-04-25 15:31 36.25532 -73.95195 32919 ft 486 kts 33°
2026-04-25 15:32 36.30905 -73.90112 32946 ft 485 kts 33°
2026-04-25 15:32 36.36270 -73.85027 32930 ft 485 kts 33°
2026-04-25 15:33 36.44291 -73.77408 32944 ft 485 kts 33°
2026-04-25 15:33 36.49654 -73.72303 32947 ft 484 kts 33°
2026-04-25 15:34 36.54980 -73.67224 32948 ft 485 kts 33°
2026-04-25 15:34 36.59470 -73.62935 32974 ft 485 kts 33°
2026-04-25 15:35 36.68388 -73.54398 32958 ft 486 kts 33°
2026-04-25 15:36 36.76414 -73.46691 32970 ft 486 kts 33°
2026-04-25 15:36 36.81776 -73.41531 32973 ft 486 kts 33°
2026-04-25 15:37 36.87119 -73.36380 32976 ft 487 kts 33°
2026-04-25 15:37 36.92496 -73.31187 32980 ft 488 kts 33°
2026-04-25 15:38 36.97833 -73.26022 32981 ft 488 kts 32°
2026-04-25 15:38 37.03214 -73.20807 32996 ft 488 kts 32°
2026-04-25 15:39 37.08592 -73.15584 32987 ft 489 kts 32°
2026-04-25 15:39 37.13963 -73.10358 32988 ft 489 kts 32°
2026-04-25 15:40 37.17527 -73.06885 32996 ft 488 kts 32°
2026-04-25 15:40 37.24678 -72.99904 33003 ft 488 kts 32°
2026-04-25 15:41 37.30047 -72.94651 33006 ft 488 kts 32°
2026-04-25 15:41 37.35370 -72.89433 33005 ft 488 kts 32°
2026-04-25 15:42 37.40728 -72.84171 33025 ft 488 kts 32°
2026-04-25 15:42 37.46079 -72.78907 33015 ft 488 kts 32°
2026-04-25 15:43 37.51394 -72.73669 33018 ft 488 kts 32°
2026-04-25 15:43 37.56741 -72.68388 33027 ft 488 kts 32°
2026-04-25 15:44 37.62093 -72.63093 33038 ft 488 kts 32°
2026-04-25 15:44 37.67415 -72.57816 33050 ft 488 kts 32°
2026-04-25 15:45 37.72756 -72.52512 33040 ft 488 kts 32°
2026-04-25 15:45 37.76295 -72.48992 33040 ft 487 kts 32°
2026-04-25 15:46 37.83404 -72.41907 33058 ft 487 kts 31°
2026-04-25 15:46 37.88576 -72.36401 33053 ft 494 kts 39°
2026-04-25 15:47 37.93207 -72.29920 33057 ft 497 kts 42°
2026-04-25 15:47 37.97782 -72.23328 33080 ft 497 kts 41°
2026-04-25 15:48 38.02378 -72.16752 33061 ft 497 kts 41°
2026-04-25 15:48 38.06983 -72.10199 33066 ft 497 kts 41°
2026-04-25 15:49 38.11558 -72.03692 33087 ft 496 kts 41°
2026-04-25 15:49 38.16163 -71.97127 33090 ft 496 kts 41°
2026-04-25 15:50 38.20761 -71.90556 33099 ft 497 kts 41°
2026-04-25 15:50 38.25328 -71.84015 33091 ft 497 kts 41°
2026-04-25 15:51 38.28407 -71.79597 33093 ft 497 kts 41°
2026-04-25 15:51 38.34529 -71.70794 33091 ft 497 kts 41°
2026-04-25 15:52 38.39095 -71.64212 33102 ft 498 kts 41°
2026-04-25 15:52 38.43694 -71.57571 33095 ft 499 kts 41°
2026-04-25 15:53 38.48267 -71.50951 33109 ft 499 kts 41°
2026-04-25 15:53 38.52868 -71.44278 33100 ft 499 kts 41°
2026-04-25 15:54 38.57434 -71.37642 33094 ft 500 kts 40°
2026-04-25 15:54 38.62032 -71.30946 33110 ft 500 kts 40°
2026-04-25 15:55 38.66627 -71.24238 33099 ft 500 kts 41°
2026-04-25 15:55 38.71210 -71.17535 33129 ft 500 kts 40°
2026-04-25 15:56 38.75797 -71.10812 33117 ft 500 kts 40°
2026-04-25 15:56 38.80353 -71.04119 33112 ft 500 kts 40°
2026-04-25 15:57 38.84928 -70.97384 33117 ft 500 kts 40°
2026-04-25 15:57 38.89477 -70.90674 33136 ft 500 kts 40°
2026-04-25 15:58 38.94042 -70.83924 33118 ft 499 kts 40°
2026-04-25 15:58 38.98592 -70.77183 33125 ft 498 kts 40°
2026-04-25 15:59 39.03129 -70.70448 33122 ft 497 kts 40°
2026-04-25 15:59 39.07628 -70.63755 33125 ft 496 kts 40°
2026-04-25 16:00 39.10649 -70.59252 33128 ft 496 kts 40°
2026-04-25 16:00 39.16636 -70.50312 33139 ft 496 kts 40°
2026-04-25 16:01 39.21153 -70.43549 33132 ft 497 kts 40°
2026-04-25 16:01 39.25660 -70.36784 33135 ft 497 kts 40°
2026-04-25 16:02 39.30159 -70.30018 33139 ft 496 kts 40°
2026-04-25 16:02 39.34632 -70.23276 33130 ft 496 kts 40°
2026-04-25 16:03 39.39129 -70.16482 33142 ft 495 kts 40°
2026-04-25 16:03 39.43582 -70.09744 33136 ft 495 kts 40°
2026-04-25 16:04 39.47977 -70.02851 33112 ft 501 kts 46°
2026-04-25 16:04 39.50982 -69.96324 33146 ft 513 kts 55°
2026-04-25 16:05 39.53674 -69.87652 33144 ft 521 kts 62°
2026-04-25 16:06 39.57333 -69.74428 33147 ft 520 kts 61°
2026-04-25 16:06 39.59803 -69.65637 33135 ft 518 kts 61°
2026-04-25 16:07 39.62292 -69.56853 33132 ft 516 kts 61°
2026-04-25 16:07 39.64767 -69.48113 33144 ft 515 kts 60°
2026-04-25 16:08 39.67211 -69.39434 33137 ft 513 kts 60°
2026-04-25 16:08 39.69647 -69.30739 33145 ft 510 kts 60°
2026-04-25 16:09 39.72066 -69.22084 33125 ft 507 kts 60°
2026-04-25 16:09 39.74450 -69.13526 33141 ft 504 kts 60°
2026-04-25 16:10 39.76427 -69.06412 33125 ft 502 kts 60°
2026-04-25 16:10 39.79184 -68.96464 33129 ft 501 kts 60°
2026-04-25 16:11 39.81532 -68.87957 33162 ft 501 kts 59°
2026-04-25 16:11 39.83892 -68.79384 33128 ft 504 kts 59°
2026-04-25 16:12 39.86251 -68.70773 33128 ft 505 kts 59°
2026-04-25 16:12 39.88596 -68.62181 33125 ft 505 kts 59°
2026-04-25 16:13 39.90949 -68.53534 33123 ft 505 kts 59°
2026-04-25 16:13 39.93297 -68.44877 33164 ft 506 kts 59°
2026-04-25 16:14 39.95623 -68.36273 33125 ft 506 kts 59°
2026-04-25 16:14 39.97960 -68.27594 33114 ft 505 kts 59°
2026-04-25 16:15 40.00092 -68.18856 33178 ft 514 kts 65°
2026-04-25 16:15 40.00740 -68.14208 33125 ft 525 kts 71°
2026-04-25 16:15 40.01202 -68.09485 33117 ft 525 kts 72°
2026-04-25 16:16 40.02074 -68.00016 33110 ft 524 kts 72°
2026-04-25 16:16 40.02969 -67.90648 33113 ft 522 kts 71°
2026-04-25 16:17 40.03901 -67.81246 33113 ft 522 kts 71°
2026-04-25 16:17 40.04835 -67.71850 33111 ft 521 kts 71°
2026-04-25 16:18 40.05758 -67.62445 33108 ft 521 kts 71°
2026-04-25 16:18 40.06664 -67.53103 33141 ft 522 kts 70°
2026-04-25 16:19 40.07571 -67.43675 33100 ft 523 kts 70°
2026-04-25 16:19 40.08470 -67.34241 33110 ft 523 kts 70°
2026-04-25 16:20 40.09800 -67.20126 33167 ft 524 kts 70°
2026-04-25 16:21 40.11124 -67.05902 33097 ft 526 kts 71°
2026-04-25 16:21 40.12105 -66.96521 33082 ft 518 kts 66°
2026-04-25 16:22 40.13540 -66.87310 33130 ft 514 kts 65°
2026-04-25 16:22 40.15048 -66.78225 33094 ft 515 kts 65°
2026-04-25 16:23 40.16527 -66.69034 33078 ft 515 kts 66°
2026-04-25 16:23 40.17961 -66.59830 33099 ft 515 kts 66°
2026-04-25 16:24 40.19368 -66.50679 33078 ft 517 kts 67°
2026-04-25 16:24 40.20778 -66.41446 33077 ft 516 kts 67°
2026-04-25 16:25 40.22173 -66.32283 33070 ft 516 kts 67°
2026-04-25 16:25 40.23576 -66.23028 33104 ft 516 kts 67°
2026-04-25 16:26 40.24961 -66.13848 33068 ft 517 kts 67°
2026-04-25 16:26 40.26349 -66.04590 33064 ft 517 kts 67°
2026-04-25 16:27 40.27730 -65.95316 33061 ft 517 kts 67°
2026-04-25 16:27 40.29098 -65.86089 33048 ft 518 kts 68°
2026-04-25 16:28 40.30464 -65.76810 33055 ft 518 kts 68°
2026-04-25 16:28 40.31814 -65.67590 33051 ft 517 kts 68°
2026-04-25 16:29 40.33165 -65.58305 33069 ft 518 kts 69°
2026-04-25 16:29 40.34503 -65.49071 33074 ft 518 kts 70°
2026-04-25 16:30 40.35841 -65.39775 33043 ft 517 kts 70°
2026-04-25 16:30 40.37165 -65.30503 33033 ft 516 kts 70°
2026-04-25 16:31 40.38473 -65.21306 33030 ft 516 kts 70°
2026-04-25 16:31 40.39780 -65.12054 33025 ft 515 kts 70°
2026-04-25 16:32 40.41078 -65.02811 33021 ft 514 kts 71°
2026-04-25 16:32 40.42370 -64.93563 33030 ft 513 kts 71°
2026-04-25 16:33 40.43642 -64.84397 33013 ft 513 kts 71°
2026-04-25 16:33 40.44916 -64.75164 33021 ft 513 kts 71°
2026-04-25 16:34 40.46172 -64.65996 33017 ft 512 kts 71°
2026-04-25 16:34 40.47435 -64.56733 33011 ft 512 kts 71°
2026-04-25 16:35 40.48468 -64.49109 33010 ft 513 kts 71°
2026-04-25 16:35 40.49923 -64.38298 33024 ft 513 kts 72°
2026-04-25 16:36 40.51158 -64.29061 32995 ft 512 kts 72°
2026-04-25 16:36 40.52374 -64.19904 32992 ft 511 kts 72°
2026-04-25 16:37 40.53588 -64.10708 32981 ft 509 kts 72°
2026-04-25 16:37 40.54794 -64.01518 33005 ft 509 kts 73°
2026-04-25 16:38 40.55983 -63.92396 32981 ft 508 kts 73°
2026-04-25 16:38 40.57169 -63.83238 32983 ft 507 kts 74°
2026-04-25 16:39 40.58343 -63.74106 32987 ft 505 kts 74°
2026-04-25 16:39 40.59508 -63.64995 32961 ft 503 kts 74°
2026-04-25 16:40 40.60651 -63.55991 32955 ft 501 kts 74°
2026-04-25 16:40 40.61793 -63.46944 32949 ft 499 kts 74°
2026-04-25 16:41 40.62927 -63.37914 32960 ft 500 kts 75°
2026-04-25 16:41 40.64603 -63.24440 32936 ft 498 kts 75°
2026-04-25 16:42 40.65715 -63.15417 32933 ft 498 kts 75°
2026-04-25 16:42 40.66819 -63.06412 32940 ft 497 kts 75°
2026-04-25 16:43 40.67909 -62.97454 32927 ft 497 kts 75°
2026-04-25 16:43 40.69002 -62.88416 32916 ft 497 kts 75°
2026-04-25 16:44 40.70081 -62.79436 32938 ft 498 kts 76°
2026-04-25 16:44 40.71150 -62.70468 32922 ft 497 kts 76°
2026-04-25 16:45 40.72217 -62.61450 32905 ft 496 kts 76°
2026-04-25 16:45 40.73276 -62.52441 32923 ft 496 kts 76°
2026-04-25 16:46 40.74326 -62.43458 32907 ft 495 kts 76°
2026-04-25 16:46 40.75016 -62.37515 32899 ft 495 kts 76°
2026-04-25 16:47 40.76396 -62.25559 32903 ft 494 kts 77°
2026-04-25 16:47 40.77422 -62.16581 32895 ft 494 kts 77°
2026-04-25 16:48 40.78433 -62.07671 32892 ft 493 kts 77°
2026-04-25 16:48 40.79442 -61.98725 32890 ft 492 kts 77°
2026-04-25 16:49 40.80444 -61.89779 32899 ft 491 kts 77°
2026-04-25 16:49 40.81438 -61.80842 32881 ft 491 kts 77°
2026-04-25 16:50 40.82418 -61.71962 32884 ft 491 kts 78°
2026-04-25 16:50 40.83236 -61.64493 32877 ft 490 kts 78°
2026-04-25 16:51 40.84202 -61.55624 32877 ft 489 kts 78°
2026-04-25 16:51 40.85004 -61.48205 32876 ft 489 kts 78°
2026-04-25 16:52 40.86123 -61.37788 32874 ft 489 kts 78°
2026-04-25 16:52 40.87065 -61.28942 32876 ft 490 kts 78°
2026-04-25 16:53 40.88476 -61.15561 32859 ft 489 kts 78°
2026-04-25 16:54 40.89402 -61.06702 32851 ft 488 kts 78°
2026-04-25 16:54 40.90325 -60.97797 32858 ft 488 kts 78°
2026-04-25 16:55 40.91242 -60.88896 32854 ft 487 kts 78°
2026-04-25 16:55 40.92144 -60.80057 32844 ft 487 kts 78°
2026-04-25 16:56 40.93045 -60.71165 32853 ft 487 kts 78°
2026-04-25 16:56 40.93932 -60.62338 32835 ft 487 kts 78°
2026-04-25 16:57 40.94819 -60.53443 32833 ft 487 kts 78°
2026-04-25 16:57 40.95699 -60.44549 32847 ft 487 kts 79°
2026-04-25 16:58 40.96573 -60.35640 32830 ft 488 kts 79°
2026-04-25 16:58 40.97435 -60.26785 32837 ft 488 kts 78°
2026-04-25 16:59 40.98292 -60.17908 32819 ft 487 kts 79°
2026-04-25 16:59 40.99143 -60.09024 32821 ft 485 kts 79°
2026-04-25 17:00 40.99994 -60.00143 32814 ft 485 kts 78°
2026-04-25 17:00 41.01173 -59.91437 32819 ft 483 kts 75°
2026-04-25 17:01 41.02469 -59.82693 32814 ft 483 kts 75°
2026-04-25 17:01 41.03752 -59.73939 32814 ft 483 kts 75°
2026-04-25 17:02 41.05001 -59.65234 32810 ft 482 kts 76°
2026-04-25 17:02 41.06234 -59.56538 32807 ft 482 kts 76°
2026-04-25 17:03 41.07465 -59.47792 32788 ft 483 kts 76°
2026-04-25 17:03 41.08693 -59.39025 32797 ft 483 kts 76°
2026-04-25 17:04 41.09914 -59.30262 32787 ft 483 kts 76°
2026-04-25 17:04 41.11119 -59.21561 32783 ft 482 kts 76°
2026-04-25 17:05 41.12328 -59.12783 32781 ft 482 kts 76°
2026-04-25 17:05 41.14121 -58.99673 32774 ft 483 kts 76°
2026-04-25 17:06 41.15312 -58.90895 32780 ft 483 kts 76°
2026-04-25 17:06 41.16497 -58.82106 32763 ft 483 kts 76°
2026-04-25 17:07 41.17671 -58.73343 32770 ft 482 kts 76°
2026-04-25 17:07 41.18833 -58.64630 32756 ft 482 kts 76°
2026-04-25 17:08 41.19997 -58.55852 32752 ft 482 kts 77°
2026-04-25 17:08 41.21155 -58.47050 32762 ft 482 kts 77°
2026-04-25 17:09 41.22297 -58.38321 32745 ft 482 kts 76°
2026-04-25 17:09 41.23440 -58.29540 32745 ft 481 kts 76°
2026-04-25 17:10 41.24574 -58.20770 32740 ft 482 kts 77°
2026-04-25 17:10 41.25702 -58.11999 32745 ft 483 kts 77°
2026-04-25 17:11 41.26825 -58.03188 32738 ft 484 kts 78°
2026-04-25 17:11 41.27945 -57.94360 32739 ft 485 kts 77°
2026-04-25 17:12 41.29061 -57.85510 32729 ft 485 kts 77°
2026-04-25 17:12 41.30168 -57.76669 32735 ft 484 kts 77°
2026-04-25 17:13 41.30906 -57.70740 32731 ft 484 kts 77°
2026-04-25 17:13 41.32357 -57.59010 32727 ft 484 kts 78°
2026-04-25 17:14 41.33443 -57.50169 32715 ft 483 kts 78°
2026-04-25 17:14 41.34515 -57.41386 32720 ft 482 kts 78°
2026-04-25 17:15 41.35586 -57.32554 32717 ft 482 kts 78°
2026-04-25 17:15 41.36649 -57.23715 32699 ft 483 kts 78°
2026-04-25 17:16 41.37704 -57.14904 32712 ft 485 kts 78°
2026-04-25 17:16 41.38761 -57.06004 32697 ft 486 kts 78°
2026-04-25 17:17 41.39811 -56.97090 32701 ft 487 kts 78°
2026-04-25 17:17 41.40858 -56.88160 32698 ft 487 kts 78°
2026-04-25 17:18 41.41891 -56.79273 32682 ft 488 kts 77°
2026-04-25 17:18 41.42929 -56.70314 32687 ft 489 kts 77°
2026-04-25 17:19 41.43962 -56.61320 32693 ft 491 kts 77°
2026-04-25 17:19 41.44980 -56.52367 32678 ft 491 kts 77°
2026-04-25 17:20 41.45998 -56.43352 32670 ft 491 kts 77°
2026-04-25 17:20 41.47011 -56.34334 32675 ft 491 kts 78°
2026-04-25 17:21 41.48019 -56.25299 32660 ft 493 kts 78°
2026-04-25 17:21 41.49016 -56.16286 32656 ft 495 kts 78°
2026-04-25 17:22 41.49688 -56.10189 32664 ft 495 kts 79°
2026-04-25 17:22 41.51011 -55.98051 32625 ft 497 kts 77°
2026-04-25 17:23 41.51995 -55.88938 32664 ft 495 kts 78°
2026-04-25 17:23 41.52974 -55.79851 32654 ft 501 kts 79°
2026-04-25 17:24 41.53961 -55.70605 32651 ft 501 kts 78°
2026-04-25 17:24 41.54928 -55.61426 32645 ft 496 kts 78°
2026-04-25 17:25 41.55879 -55.52361 32637 ft 495 kts 78°
2026-04-25 17:25 41.56830 -55.43230 32644 ft 498 kts 78°
2026-04-25 17:26 41.57789 -55.33974 32639 ft 507 kts 79°
2026-04-25 17:26 41.58747 -55.24621 32645 ft 514 kts 80°
2026-04-25 17:27 41.59703 -55.15186 32622 ft 506 kts 81°
2026-04-25 17:27 41.60321 -55.09026 32619 ft 503 kts 79°
2026-04-25 17:28 41.61559 -54.96677 32628 ft 505 kts 81°
2026-04-25 17:28 41.62490 -54.87302 32632 ft 509 kts 80°
2026-04-25 17:29 41.63409 -54.77951 32630 ft 509 kts 80°
2026-04-25 17:29 41.64323 -54.68556 32623 ft 509 kts 81°
2026-04-25 17:30 41.65229 -54.59156 32614 ft 509 kts 81°
2026-04-25 17:30 41.66124 -54.49804 32619 ft 510 kts 81°
2026-04-25 17:31 41.67021 -54.40368 32604 ft 511 kts 81°
2026-04-25 17:31 41.67915 -54.30861 32625 ft 517 kts 81°
2026-04-25 17:32 41.68803 -54.21318 32614 ft 515 kts 81°
2026-04-25 17:32 41.69674 -54.11869 32613 ft 513 kts 81°
2026-04-25 17:33 41.70545 -54.02355 32606 ft 513 kts 81°
2026-04-25 17:33 41.71406 -53.92854 32596 ft 515 kts 82°
2026-04-25 17:34 41.72263 -53.83322 32609 ft 522 kts 82°
2026-04-25 17:34 41.73127 -53.73606 32598 ft 525 kts 82°
2026-04-25 17:35 41.73979 -53.63917 32585 ft 520 kts 82°
2026-04-25 17:35 41.74675 -53.55934 32596 ft 518 kts 82°
2026-04-25 17:36 41.75505 -53.46347 32600 ft 517 kts 83°
2026-04-25 17:36 41.76334 -53.36669 32610 ft 527 kts 83°
2026-04-25 17:37 41.77159 -53.26938 32595 ft 530 kts 83°
2026-04-25 17:37 41.77984 -53.17099 32593 ft 530 kts 83°
2026-04-25 17:38 41.78662 -53.08946 32588 ft 529 kts 83°
2026-04-25 17:38 41.79601 -52.97521 32593 ft 526 kts 83°
2026-04-25 17:39 41.80389 -52.87821 32587 ft 525 kts 83°
2026-04-25 17:39 41.81168 -52.78142 32586 ft 524 kts 83°
2026-04-25 17:40 41.81941 -52.68419 32587 ft 523 kts 83°
2026-04-25 17:40 41.82706 -52.58702 32585 ft 524 kts 83°
2026-04-25 17:41 41.83460 -52.49024 32581 ft 525 kts 84°
2026-04-25 17:41 41.84213 -52.39236 32583 ft 528 kts 84°
2026-04-25 17:42 41.84961 -52.29411 32585 ft 531 kts 84°
2026-04-25 17:42 41.85705 -52.19514 32570 ft 533 kts 84°
2026-04-25 17:43 41.86438 -52.09665 32579 ft 534 kts 84°
2026-04-25 17:43 41.87168 -51.99734 32554 ft 534 kts 85°
2026-04-25 17:44 41.87887 -51.89829 32586 ft 535 kts 85°
2026-04-25 17:44 41.88602 -51.79862 32574 ft 536 kts 85°
2026-04-25 17:45 41.89190 -51.71566 32572 ft 537 kts 85°
2026-04-25 17:45 41.90004 -51.59949 32577 ft 537 kts 85°
2026-04-25 17:46 41.90695 -51.49950 32547 ft 538 kts 85°
2026-04-25 17:46 41.91374 -51.39998 32575 ft 539 kts 86°
2026-04-25 17:47 41.92051 -51.29934 32579 ft 541 kts 86°
2026-04-25 17:47 41.92722 -51.19848 32570 ft 542 kts 86°
2026-04-25 17:48 41.93709 -51.04733 32569 ft 543 kts 86°
2026-04-25 17:49 41.94359 -50.94617 32557 ft 544 kts 86°
2026-04-25 17:49 41.95001 -50.84472 32567 ft 545 kts 87°
2026-04-25 17:50 41.95633 -50.74359 32571 ft 546 kts 87°
2026-04-25 17:50 41.96261 -50.64158 32584 ft 547 kts 87°
2026-04-25 17:51 41.96876 -50.54014 32563 ft 547 kts 87°
2026-04-25 17:51 41.97487 -50.43788 32564 ft 548 kts 88°
2026-04-25 17:52 41.98089 -50.33550 32573 ft 550 kts 88°
2026-04-25 17:52 41.98682 -50.23329 32576 ft 551 kts 88°
2026-04-25 17:53 41.99269 -50.13039 32571 ft 552 kts 88°
2026-04-25 17:53 41.99850 -50.02746 32543 ft 552 kts 88°
2026-04-25 17:54 42.00966 -49.92499 32572 ft 555 kts 81°
2026-04-25 17:54 42.02493 -49.82311 32567 ft 556 kts 80°
2026-04-25 17:55 42.04013 -49.72135 32581 ft 557 kts 81°
2026-04-25 17:55 42.05492 -49.61890 32573 ft 557 kts 81°
2026-04-25 17:56 42.06931 -49.51704 32563 ft 557 kts 81°
2026-04-25 17:56 42.08367 -49.41452 32529 ft 556 kts 82°
2026-04-25 17:57 42.09797 -49.31202 32575 ft 557 kts 82°
2026-04-25 17:57 42.11223 -49.20925 32576 ft 558 kts 82°
2026-04-25 17:58 42.12638 -49.10658 32570 ft 559 kts 82°
2026-04-25 17:58 42.14050 -49.00340 32565 ft 560 kts 82°
2026-04-25 17:59 42.15455 -48.90001 32578 ft 560 kts 82°
2026-04-25 17:59 42.16838 -48.79753 32562 ft 559 kts 82°
2026-04-25 18:00 42.18221 -48.69429 32573 ft 559 kts 82°
2026-04-25 18:00 42.19596 -48.59095 32578 ft 559 kts 83°
2026-04-25 18:01 42.20959 -48.48770 32588 ft 559 kts 83°
2026-04-25 18:01 42.22306 -48.38496 32576 ft 559 kts 83°
2026-04-25 18:02 42.23653 -48.28145 32575 ft 558 kts 83°
2026-04-25 18:02 42.24989 -48.17807 32547 ft 559 kts 83°
2026-04-25 18:03 42.26310 -48.07508 32582 ft 560 kts 83°
2026-04-25 18:03 42.27633 -47.97107 32578 ft 562 kts 84°
2026-04-25 18:04 42.28954 -47.86653 32573 ft 563 kts 84°
2026-04-25 18:04 42.30257 -47.76263 32576 ft 564 kts 84°
2026-04-25 18:05 42.31560 -47.65794 32578 ft 563 kts 84°
2026-04-25 18:05 42.32849 -47.55358 32570 ft 562 kts 84°
2026-04-25 18:06 42.34125 -47.44943 32581 ft 560 kts 84°
2026-04-25 18:06 42.35379 -47.34626 32580 ft 559 kts 84°
2026-04-25 18:07 42.36632 -47.24240 32583 ft 559 kts 84°
2026-04-25 18:07 42.37875 -47.13847 32583 ft 558 kts 84°
2026-04-25 18:08 42.39099 -47.03532 32582 ft 558 kts 84°
2026-04-25 18:08 42.40323 -46.93140 32595 ft 560 kts 85°
2026-04-25 18:09 42.41545 -46.82672 32592 ft 563 kts 85°
2026-04-25 18:09 42.42761 -46.72173 32598 ft 565 kts 85°
2026-04-25 18:10 42.43760 -46.63486 32592 ft 566 kts 85°
2026-04-25 18:10 42.45168 -46.51149 32596 ft 566 kts 86°
2026-04-25 18:11 42.46352 -46.40681 32532 ft 565 kts 86°
2026-04-25 18:11 42.47534 -46.30137 32595 ft 564 kts 86°
2026-04-25 18:12 42.48701 -46.19616 32609 ft 565 kts 86°
2026-04-25 18:12 42.49856 -46.09118 32610 ft 567 kts 87°
2026-04-25 18:13 42.51012 -45.98528 32605 ft 568 kts 87°
2026-04-25 18:13 42.52159 -45.87934 32612 ft 568 kts 87°
2026-04-25 18:14 42.53855 -45.72090 32602 ft 568 kts 87°
2026-04-25 18:14 42.54977 -45.61484 32612 ft 568 kts 88°
2026-04-25 18:15 42.56088 -45.50885 32611 ft 569 kts 88°
2026-04-25 18:15 42.57193 -45.40249 32611 ft 569 kts 88°
2026-04-25 18:16 42.58289 -45.29605 32615 ft 569 kts 88°
2026-04-25 18:17 42.59909 -45.13685 32563 ft 567 kts 88°
2026-04-25 18:17 42.60969 -45.03153 32619 ft 565 kts 88°
2026-04-25 18:18 42.62022 -44.92564 32623 ft 565 kts 88°
2026-04-25 18:18 42.63065 -44.81982 32624 ft 565 kts 89°
2026-04-25 18:19 42.64100 -44.71389 32624 ft 565 kts 89°
2026-04-25 18:19 42.65120 -44.60846 32626 ft 565 kts 89°
2026-04-25 18:20 42.66133 -44.50273 32592 ft 564 kts 89°
2026-04-25 18:20 42.67134 -44.39723 32628 ft 563 kts 89°
2026-04-25 18:21 42.68124 -44.29166 32629 ft 562 kts 89°
2026-04-25 18:21 42.69099 -44.18670 32637 ft 562 kts 89°
2026-04-25 18:22 42.70071 -44.08108 32642 ft 562 kts 89°
2026-04-25 18:22 42.71032 -43.97549 32639 ft 562 kts 89°
2026-04-25 18:23 42.71977 -43.87065 32609 ft 560 kts 89°
2026-04-25 18:23 42.72916 -43.76546 32638 ft 558 kts 89°
2026-04-25 18:24 42.73837 -43.66100 32643 ft 558 kts 89°
2026-04-25 18:24 42.74599 -43.57367 32636 ft 557 kts 89°
2026-04-25 18:25 42.75653 -43.45179 32649 ft 556 kts 90°
2026-04-25 18:25 42.76397 -43.36468 32649 ft 556 kts 90°
2026-04-25 18:26 42.77283 -43.25996 32617 ft 555 kts 90°
2026-04-25 18:26 42.78152 -43.15617 32642 ft 555 kts 90°
2026-04-25 18:27 42.79019 -43.05145 32654 ft 555 kts 90°
2026-04-25 18:27 42.79873 -42.94702 32646 ft 555 kts 90°
2026-04-25 18:28 42.80714 -42.84304 32649 ft 556 kts 90°
2026-04-25 18:28 42.81554 -42.73806 32649 ft 555 kts 90°
2026-04-25 18:29 42.82788 -42.58162 32653 ft 553 kts 90°
2026-04-25 18:30 42.84393 -42.37356 32661 ft 554 kts 90°
2026-04-25 18:30 42.85186 -42.26902 32661 ft 553 kts 90°
2026-04-25 18:31 42.85968 -42.16455 32665 ft 553 kts 90°
2026-04-25 18:31 42.86736 -42.06076 32661 ft 553 kts 90°
2026-04-25 18:32 42.87499 -41.95633 32654 ft 552 kts 91°
2026-04-25 18:32 42.88245 -41.85272 32667 ft 553 kts 91°
2026-04-25 18:33 42.88989 -41.74815 32664 ft 554 kts 91°
2026-04-25 18:33 42.89725 -41.64342 32663 ft 553 kts 91°
2026-04-25 18:34 42.90447 -41.53939 32665 ft 553 kts 91°
2026-04-25 18:34 42.91162 -41.43495 32659 ft 553 kts 91°
2026-04-25 18:35 42.91867 -41.33045 32666 ft 552 kts 91°
2026-04-25 18:35 42.92562 -41.22596 32674 ft 552 kts 91°
2026-04-25 18:36 42.93246 -41.12169 32669 ft 552 kts 91°
2026-04-25 18:36 42.93917 -41.01798 32663 ft 551 kts 92°
2026-04-25 18:37 42.94583 -40.91363 32673 ft 551 kts 92°
2026-04-25 18:37 42.95238 -40.80930 32677 ft 551 kts 92°
2026-04-25 18:38 42.95887 -40.70461 32680 ft 552 kts 92°
2026-04-25 18:38 42.96520 -40.60065 32668 ft 553 kts 92°
2026-04-25 18:39 42.97150 -40.49590 32684 ft 554 kts 92°
2026-04-25 18:39 42.97772 -40.39076 32686 ft 556 kts 92°
2026-04-25 18:40 42.98386 -40.28541 32688 ft 557 kts 92°
2026-04-25 18:40 42.98992 -40.17975 32671 ft 557 kts 92°
2026-04-25 18:41 42.99586 -40.07433 32688 ft 561 kts 92°
2026-04-25 18:41 42.99883 -40.02105 32969 ft 561 kts 92°
2026-04-25 18:41 43.00170 -39.96801 33333 ft 559 kts 93°
2026-04-25 18:42 43.00418 -39.91503 33683 ft 557 kts 94°
2026-04-25 18:42 43.00566 -39.88004 33890 ft 556 kts 94°
2026-04-25 18:42 43.00846 -39.81031 34350 ft 551 kts 93°
2026-04-25 18:42 43.01050 -39.75805 34693 ft 549 kts 93°
2026-04-25 18:43 43.01461 -39.65314 34690 ft 552 kts 93°
2026-04-25 18:43 43.01876 -39.54933 34671 ft 546 kts 93°
2026-04-25 18:44 43.02284 -39.44580 34671 ft 544 kts 92°
2026-04-25 18:44 43.02681 -39.34238 34686 ft 544 kts 92°
2026-04-25 18:45 43.03064 -39.23962 34685 ft 545 kts 92°
2026-04-25 18:45 43.03442 -39.13595 34690 ft 547 kts 92°
2026-04-25 18:46 43.03812 -39.03183 34700 ft 549 kts 92°
2026-04-25 18:46 43.04175 -38.92740 34694 ft 550 kts 92°
2026-04-25 18:47 43.04529 -38.82287 34684 ft 549 kts 92°
2026-04-25 18:47 43.04872 -38.71895 34698 ft 549 kts 92°
2026-04-25 18:48 43.05205 -38.61471 34702 ft 548 kts 92°
2026-04-25 18:48 43.05528 -38.51063 34715 ft 547 kts 92°
2026-04-25 18:49 43.05840 -38.40726 34713 ft 546 kts 92°
2026-04-25 18:49 43.06144 -38.30334 34721 ft 545 kts 92°
2026-04-25 18:50 43.06436 -38.20027 34723 ft 544 kts 92°
2026-04-25 18:50 43.06720 -38.09662 34731 ft 544 kts 92°
2026-04-25 18:51 43.06949 -38.01052 34740 ft 544 kts 92°
2026-04-25 18:51 43.07258 -37.89008 34745 ft 544 kts 92°
2026-04-25 18:52 43.07514 -37.78635 34746 ft 545 kts 92°
2026-04-25 18:52 43.07760 -37.68315 34755 ft 545 kts 92°
2026-04-25 18:53 43.07998 -37.57930 34759 ft 544 kts 92°
2026-04-25 18:53 43.08226 -37.47635 34768 ft 544 kts 92°
2026-04-25 18:54 43.08550 -37.32103 34778 ft 544 kts 92°
2026-04-25 18:55 43.08753 -37.21808 34783 ft 544 kts 92°
2026-04-25 18:55 43.08949 -37.11445 34798 ft 544 kts 92°
2026-04-25 18:56 43.09134 -37.01164 34771 ft 543 kts 92°
2026-04-25 18:56 43.09311 -36.90801 34801 ft 542 kts 92°
2026-04-25 18:57 43.09477 -36.80556 34804 ft 541 kts 92°
2026-04-25 18:57 43.09634 -36.70251 34821 ft 540 kts 92°
2026-04-25 18:58 43.09782 -36.59980 34820 ft 539 kts 92°
2026-04-25 18:58 43.09985 -36.44655 34829 ft 538 kts 92°
2026-04-25 18:59 43.10225 -36.24203 34849 ft 534 kts 92°
2026-04-25 19:00 43.10378 -36.09050 34851 ft 533 kts 92°
2026-04-25 19:01 43.10512 -35.93827 34870 ft 532 kts 92°
2026-04-25 19:01 43.10590 -35.83711 34874 ft 531 kts 92°
2026-04-25 19:02 43.10691 -35.68618 34880 ft 528 kts 92°
2026-04-25 19:03 43.10755 -35.56885 34882 ft 526 kts 92°
2026-04-25 19:03 43.10813 -35.43622 34881 ft 524 kts 92°
2026-04-25 19:04 43.10860 -35.28633 34901 ft 524 kts 93°
2026-04-25 19:05 43.10892 -35.08667 34906 ft 526 kts 93°
2026-04-25 19:06 43.10894 -34.98639 34912 ft 527 kts 92°
2026-04-25 19:06 43.10883 -34.83542 34936 ft 529 kts 92°
2026-04-25 19:07 43.10851 -34.68459 34932 ft 530 kts 93°
2026-04-25 19:08 43.10800 -34.53304 34929 ft 530 kts 92°
2026-04-25 19:09 43.10719 -34.36505 34945 ft 530 kts 92°
2026-04-25 19:10 43.10602 -34.18014 34961 ft 530 kts 92°
2026-04-25 19:10 43.10526 -34.07963 34957 ft 530 kts 92°
2026-04-25 19:11 43.10441 -33.97875 34968 ft 529 kts 92°
2026-04-25 19:11 43.10347 -33.87775 34958 ft 528 kts 93°
2026-04-25 19:12 43.10245 -33.77793 34971 ft 526 kts 93°
2026-04-25 19:12 43.10154 -33.69473 34972 ft 524 kts 93°
2026-04-25 19:13 43.10017 -33.57899 34975 ft 521 kts 93°
2026-04-25 19:13 43.09911 -33.49596 34985 ft 520 kts 93°
2026-04-25 19:14 43.09777 -33.39767 34994 ft 519 kts 93°
2026-04-25 19:14 43.09635 -33.29869 34996 ft 519 kts 93°
2026-04-25 19:15 43.09484 -33.19961 34997 ft 519 kts 94°
2026-04-25 19:15 43.09325 -33.10136 35016 ft 520 kts 94°
2026-04-25 19:16 43.09157 -33.00220 35021 ft 520 kts 94°
2026-04-25 19:16 43.08980 -32.90314 35020 ft 521 kts 94°
2026-04-25 19:17 43.08795 -32.80389 35011 ft 521 kts 94°
2026-04-25 19:17 43.08601 -32.70505 35031 ft 521 kts 94°
2026-04-25 19:18 43.08398 -32.60568 35021 ft 521 kts 94°
2026-04-25 19:18 43.08189 -32.50704 35037 ft 521 kts 94°
2026-04-25 19:19 43.07969 -32.40779 35049 ft 521 kts 94°
2026-04-25 19:19 43.07741 -32.30867 35047 ft 521 kts 94°
2026-04-25 19:20 43.07504 -32.20967 35048 ft 521 kts 94°
2026-04-25 19:20 43.07260 -32.11116 35050 ft 520 kts 94°
2026-04-25 19:21 43.07007 -32.01205 35054 ft 520 kts 94°
2026-04-25 19:21 43.06613 -31.86422 35067 ft 519 kts 94°
2026-04-25 19:22 43.06338 -31.76555 35069 ft 518 kts 94°
2026-04-25 19:23 43.05913 -31.61802 35073 ft 518 kts 94°
2026-04-25 19:23 43.05469 -31.47075 35077 ft 518 kts 94°
2026-04-25 19:24 43.05161 -31.37202 35079 ft 519 kts 93°
2026-04-25 19:25 43.04521 -31.17494 35096 ft 519 kts 94°
2026-04-25 19:25 43.04187 -31.07604 35088 ft 520 kts 93°
2026-04-25 19:26 43.03846 -30.97770 35108 ft 520 kts 94°
2026-04-25 19:26 43.03495 -30.87882 35098 ft 521 kts 94°
2026-04-25 19:27 43.03196 -30.79656 35083 ft 521 kts 93°
2026-04-25 19:27 43.02768 -30.68147 35114 ft 520 kts 93°
2026-04-25 19:28 43.02391 -30.58243 35111 ft 520 kts 93°
2026-04-25 19:28 43.02009 -30.48417 35113 ft 520 kts 93°
2026-04-25 19:29 43.01614 -30.38519 35115 ft 520 kts 93°
2026-04-25 19:29 43.01215 -30.28691 35119 ft 520 kts 94°
2026-04-25 19:30 43.00804 -30.18810 35110 ft 520 kts 94°
2026-04-25 19:30 43.00389 -30.09005 35117 ft 519 kts 93°
2026-04-25 19:31 43.00020 -29.99147 35126 ft 518 kts 90°
2026-04-25 19:31 43.00367 -29.89332 35126 ft 517 kts 85°
2026-04-25 19:32 43.00838 -29.79510 35124 ft 517 kts 85°
2026-04-25 19:32 43.01207 -29.71358 35124 ft 517 kts 86°
2026-04-25 19:33 43.01683 -29.59897 35129 ft 517 kts 86°
2026-04-25 19:33 43.02068 -29.50135 35134 ft 517 kts 86°
2026-04-25 19:34 43.02447 -29.40304 35127 ft 517 kts 86°
2026-04-25 19:34 43.02820 -29.30472 35136 ft 517 kts 86°
2026-04-25 19:35 43.03183 -29.20661 35135 ft 516 kts 86°
2026-04-25 19:35 43.03537 -29.10914 35139 ft 516 kts 86°
2026-04-25 19:36 43.03884 -29.01098 35144 ft 515 kts 86°
2026-04-25 19:36 43.04224 -28.91283 35136 ft 515 kts 86°
2026-04-25 19:37 43.04551 -28.81554 35141 ft 514 kts 86°
2026-04-25 19:37 43.04872 -28.71780 35146 ft 514 kts 86°
2026-04-25 19:38 43.05184 -28.62022 35152 ft 513 kts 86°
2026-04-25 19:38 43.05489 -28.52246 35147 ft 513 kts 86°
2026-04-25 19:39 43.05783 -28.42542 35151 ft 513 kts 86°
2026-04-25 19:39 43.06070 -28.32777 35152 ft 513 kts 86°
2026-04-25 19:40 43.06350 -28.23000 35161 ft 513 kts 86°
2026-04-25 19:40 43.06619 -28.13298 35156 ft 513 kts 86°
2026-04-25 19:41 43.06880 -28.03551 35153 ft 512 kts 86°
2026-04-25 19:41 43.07051 -27.97038 35155 ft 511 kts 86°
2026-04-25 19:42 43.07379 -27.84068 35159 ft 511 kts 87°
2026-04-25 19:42 43.07614 -27.74417 35154 ft 510 kts 87°
2026-04-25 19:43 43.07842 -27.64713 35153 ft 509 kts 87°
2026-04-25 19:43 43.08062 -27.55012 35154 ft 509 kts 87°
2026-04-25 19:44 43.08272 -27.45385 35163 ft 508 kts 87°
2026-04-25 19:44 43.08474 -27.35749 35158 ft 508 kts 87°
2026-04-25 19:45 43.08668 -27.26079 35152 ft 507 kts 87°
2026-04-25 19:45 43.08854 -27.16431 35154 ft 507 kts 87°
2026-04-25 19:46 43.09032 -27.06788 35160 ft 506 kts 88°
2026-04-25 19:46 43.09201 -26.97210 35158 ft 506 kts 88°
2026-04-25 19:47 43.09362 -26.87571 35145 ft 505 kts 88°
2026-04-25 19:47 43.09515 -26.77956 35152 ft 504 kts 88°
2026-04-25 19:48 43.09659 -26.68428 35160 ft 503 kts 88°
2026-04-25 19:48 43.09795 -26.58849 35153 ft 502 kts 88°
2026-04-25 19:49 43.09881 -26.52513 35144 ft 501 kts 88°
2026-04-25 19:49 43.10043 -26.39819 35150 ft 500 kts 88°
2026-04-25 19:50 43.10208 -26.25518 35150 ft 500 kts 88°
2026-04-25 19:51 43.10308 -26.16023 35151 ft 501 kts 88°
2026-04-25 19:51 43.10401 -26.06477 35150 ft 501 kts 88°
2026-04-25 19:52 43.10486 -25.96933 35146 ft 502 kts 88°
2026-04-25 19:52 43.10562 -25.87365 35154 ft 502 kts 88°
2026-04-25 19:53 43.10631 -25.77862 35149 ft 502 kts 88°
2026-04-25 19:53 43.10691 -25.68292 35146 ft 502 kts 88°
2026-04-25 19:54 43.10744 -25.58745 35147 ft 502 kts 88°
2026-04-25 19:54 43.10789 -25.49178 35146 ft 502 kts 88°
2026-04-25 19:55 43.10826 -25.39626 35145 ft 502 kts 88°
2026-04-25 19:55 43.10855 -25.30122 35144 ft 501 kts 88°
2026-04-25 19:56 43.10876 -25.20559 35143 ft 501 kts 89°
2026-04-25 19:56 43.10889 -25.11001 35142 ft 501 kts 89°
2026-04-25 19:57 43.10894 -25.01521 35141 ft 501 kts 89°
2026-04-25 19:57 43.10891 -24.91985 35145 ft 500 kts 89°
2026-04-25 19:58 43.10883 -24.84063 35143 ft 500 kts 89°
2026-04-25 19:58 43.10866 -24.74521 35144 ft 500 kts 89°
2026-04-25 19:59 43.10841 -24.65043 35145 ft 500 kts 89°
2026-04-25 19:59 43.10808 -24.55510 35140 ft 500 kts 89°
2026-04-25 20:00 43.10767 -24.45987 35138 ft 500 kts 89°
2026-04-25 20:00 43.10719 -24.36498 35141 ft 500 kts 89°
2026-04-25 20:01 43.10630 -24.22194 35139 ft 499 kts 89°
2026-04-25 20:01 43.10562 -24.12738 35131 ft 499 kts 89°
2026-04-25 20:02 43.10486 -24.03254 35133 ft 498 kts 89°
2026-04-25 20:02 43.10402 -23.93760 35130 ft 498 kts 89°
2026-04-25 20:03 43.10311 -23.84327 35132 ft 497 kts 89°
2026-04-25 20:03 43.10212 -23.74871 35130 ft 497 kts 89°
2026-04-25 20:04 43.10105 -23.65398 35131 ft 497 kts 89°
2026-04-25 20:04 43.09991 -23.55958 35132 ft 497 kts 89°
2026-04-25 20:05 43.09868 -23.46486 35126 ft 497 kts 90°
2026-04-25 20:05 43.09737 -23.37021 35125 ft 496 kts 90°
2026-04-25 20:06 43.09600 -23.27633 35125 ft 496 kts 90°
2026-04-25 20:06 43.09455 -23.18187 35125 ft 496 kts 90°
2026-04-25 20:07 43.09301 -23.08743 35124 ft 496 kts 91°
2026-04-25 20:07 43.09141 -22.99340 35123 ft 496 kts 91°
2026-04-25 20:08 43.08972 -22.89882 35122 ft 496 kts 91°
2026-04-25 20:08 43.08796 -22.80472 35123 ft 497 kts 91°
2026-04-25 20:09 43.08611 -22.71026 35120 ft 497 kts 92°
2026-04-25 20:09 43.08418 -22.61554 35116 ft 497 kts 92°
2026-04-25 20:10 43.08219 -22.52135 35123 ft 496 kts 92°
2026-04-25 20:10 43.08011 -22.42702 35122 ft 496 kts 92°
2026-04-25 20:11 43.07796 -22.33273 35123 ft 495 kts 92°
2026-04-25 20:11 43.07573 -22.23837 35121 ft 495 kts 92°
2026-04-25 20:12 43.07344 -22.14481 35121 ft 495 kts 92°
2026-04-25 20:12 43.07145 -22.06591 35124 ft 494 kts 92°
2026-04-25 20:13 43.06860 -21.95639 35124 ft 495 kts 92°
2026-04-25 20:13 43.06608 -21.86278 35123 ft 495 kts 92°
2026-04-25 20:14 43.06346 -21.76851 35117 ft 495 kts 93°
2026-04-25 20:14 43.06078 -21.67472 35127 ft 495 kts 93°
2026-04-25 20:15 43.05800 -21.58011 35130 ft 496 kts 93°
2026-04-25 20:15 43.05516 -21.48624 35122 ft 498 kts 93°
2026-04-25 20:16 43.05221 -21.39130 35135 ft 499 kts 93°
2026-04-25 20:16 43.04919 -21.29657 35135 ft 501 kts 93°
2026-04-25 20:17 43.04607 -21.20108 35131 ft 502 kts 94°
2026-04-25 20:17 43.04287 -21.10548 35124 ft 504 kts 94°
2026-04-25 20:18 43.03956 -21.00936 35138 ft 507 kts 94°
2026-04-25 20:18 43.03618 -20.91325 35120 ft 510 kts 95°
2026-04-25 20:19 43.03266 -20.81589 35145 ft 513 kts 95°
2026-04-25 20:19 43.02904 -20.71798 35134 ft 517 kts 96°
2026-04-25 20:20 43.02534 -20.61981 35145 ft 520 kts 96°
2026-04-25 20:20 43.02151 -20.52074 35146 ft 522 kts 96°
2026-04-25 20:21 43.01759 -20.42135 35134 ft 523 kts 96°
2026-04-25 20:21 43.01360 -20.32242 35143 ft 524 kts 96°
2026-04-25 20:22 43.01086 -20.25581 35140 ft 524 kts 96°
2026-04-25 20:22 43.00531 -20.12311 35140 ft 525 kts 97°
2026-04-25 20:23 43.00140 -20.02395 35145 ft 526 kts 94°
2026-04-25 20:23 43.00647 -19.92369 35150 ft 530 kts 84°
2026-04-25 20:24 43.01723 -19.82398 35148 ft 531 kts 84°
2026-04-25 20:24 43.02783 -19.72441 35144 ft 532 kts 84°
2026-04-25 20:25 43.03796 -19.62457 35149 ft 532 kts 84°
2026-04-25 20:25 43.04788 -19.52396 35154 ft 533 kts 85°
2026-04-25 20:26 43.05770 -19.42320 35148 ft 534 kts 84°
2026-04-25 20:26 43.06740 -19.32313 35148 ft 534 kts 84°
2026-04-25 20:27 43.07708 -19.22245 35150 ft 534 kts 84°
2026-04-25 20:27 43.08669 -19.12154 35153 ft 534 kts 84°
2026-04-25 20:28 43.09622 -19.02057 35156 ft 534 kts 84°
2026-04-25 20:28 43.10560 -18.92014 35159 ft 534 kts 84°
2026-04-25 20:29 43.11495 -18.81914 35162 ft 534 kts 85°
2026-04-25 20:29 43.12420 -18.71809 35162 ft 534 kts 85°
2026-04-25 20:30 43.13332 -18.61754 35167 ft 535 kts 85°
2026-04-25 20:30 43.14242 -18.51627 35165 ft 535 kts 85°
2026-04-25 20:31 43.15137 -18.41554 35161 ft 535 kts 84°
2026-04-25 20:31 43.16027 -18.31438 35162 ft 534 kts 84°
2026-04-25 20:32 43.16909 -18.21312 35170 ft 534 kts 84°
2026-04-25 20:32 43.17775 -18.11264 35177 ft 534 kts 85°
2026-04-25 20:33 43.18639 -18.01130 35178 ft 533 kts 85°
2026-04-25 20:33 43.19205 -17.94438 35177 ft 533 kts 85°
2026-04-25 20:34 43.20329 -17.81006 35173 ft 529 kts 85°
2026-04-25 20:34 43.21154 -17.71010 35180 ft 525 kts 86°
2026-04-25 20:35 43.21961 -17.61135 35174 ft 522 kts 86°
2026-04-25 20:35 43.22759 -17.51257 35184 ft 519 kts 86°
2026-04-25 20:36 43.23547 -17.41400 35187 ft 518 kts 86°
2026-04-25 20:36 43.24320 -17.31611 35192 ft 518 kts 86°
2026-04-25 20:37 43.25089 -17.21773 35190 ft 518 kts 86°
2026-04-25 20:37 43.25844 -17.12002 35197 ft 518 kts 86°
2026-04-25 20:38 43.26597 -17.02145 35192 ft 519 kts 87°
2026-04-25 20:38 43.27342 -16.92287 35201 ft 519 kts 87°
2026-04-25 20:39 43.28074 -16.82477 35205 ft 520 kts 87°
2026-04-25 20:39 43.28561 -16.75896 35204 ft 520 kts 87°
2026-04-25 20:40 43.29524 -16.62722 35202 ft 520 kts 87°
2026-04-25 20:40 43.30237 -16.52827 35210 ft 520 kts 87°
2026-04-25 20:41 43.30940 -16.42940 35209 ft 520 kts 87°
2026-04-25 20:41 43.31636 -16.33036 35209 ft 520 kts 88°
2026-04-25 20:42 43.32323 -16.23142 35215 ft 520 kts 88°
2026-04-25 20:42 43.32884 -16.14962 35217 ft 519 kts 88°
2026-04-25 20:43 43.33664 -16.03447 35220 ft 519 kts 88°
2026-04-25 20:43 43.34218 -15.95164 35213 ft 518 kts 88°
2026-04-25 20:44 43.34866 -15.85350 35224 ft 518 kts 88°
2026-04-25 20:44 43.35510 -15.75485 35224 ft 517 kts 88°
2026-04-25 20:45 43.36139 -15.65696 35226 ft 517 kts 88°
2026-04-25 20:45 43.36766 -15.55817 35223 ft 516 kts 88°
2026-04-25 20:46 43.37378 -15.46048 35228 ft 516 kts 88°
2026-04-25 20:46 43.37985 -15.36210 35223 ft 515 kts 88°
2026-04-25 20:47 43.38579 -15.26445 35236 ft 514 kts 88°
2026-04-25 20:47 43.39168 -15.16613 35237 ft 514 kts 88°
2026-04-25 20:48 43.39748 -15.06805 35233 ft 514 kts 88°
2026-04-25 20:48 43.40318 -14.97010 35234 ft 514 kts 88°
2026-04-25 20:49 43.40877 -14.87262 35232 ft 513 kts 88°
2026-04-25 20:49 43.41431 -14.77477 35236 ft 512 kts 88°
2026-04-25 20:50 43.41975 -14.67704 35236 ft 512 kts 88°
2026-04-25 20:50 43.42507 -14.58004 35239 ft 511 kts 88°
2026-04-25 20:51 43.43034 -14.48235 35240 ft 511 kts 88°
2026-04-25 20:51 43.43551 -14.38482 35243 ft 510 kts 88°
2026-04-25 20:52 43.43976 -14.30359 35242 ft 510 kts 88°
2026-04-25 20:52 43.44559 -14.19025 35231 ft 511 kts 88°
2026-04-25 20:53 43.45051 -14.09278 35244 ft 511 kts 88°
2026-04-25 20:53 43.45534 -13.99555 35245 ft 511 kts 88°
2026-04-25 20:54 43.46012 -13.89750 35244 ft 511 kts 88°
2026-04-25 20:54 43.46478 -13.80028 35247 ft 511 kts 88°
2026-04-25 20:55 43.46939 -13.70259 35249 ft 510 kts 88°
2026-04-25 20:55 43.47389 -13.60507 35244 ft 509 kts 88°
2026-04-25 20:56 43.47829 -13.50828 35246 ft 509 kts 88°
2026-04-25 20:56 43.48263 -13.41077 35252 ft 508 kts 88°
2026-04-25 20:57 43.48687 -13.31359 35246 ft 508 kts 88°
2026-04-25 20:57 43.49102 -13.21660 35247 ft 507 kts 89°
2026-04-25 20:58 43.49508 -13.12005 35242 ft 507 kts 88°
2026-04-25 20:58 43.49908 -13.02307 35247 ft 507 kts 88°
2026-04-25 20:59 43.49891 -12.92647 35259 ft 506 kts 94°
2026-04-25 20:59 43.49585 -12.82965 35244 ft 506 kts 94°
2026-04-25 21:00 43.49375 -12.76477 35244 ft 506 kts 94°
2026-04-25 21:01 43.48842 -12.58763 35253 ft 506 kts 94°
2026-04-25 21:01 43.48552 -12.49066 35249 ft 505 kts 94°
2026-04-25 21:02 43.48254 -12.39380 35245 ft 505 kts 93°
2026-04-25 21:02 43.47950 -12.29781 35241 ft 504 kts 94°
2026-04-25 21:03 43.47634 -12.20136 35251 ft 503 kts 94°
2026-04-25 21:03 43.47314 -12.10573 35254 ft 502 kts 94°
2026-04-25 21:04 43.46983 -12.00960 35242 ft 501 kts 94°
2026-04-25 21:04 43.46645 -11.91350 35243 ft 501 kts 94°
2026-04-25 21:05 43.46302 -11.81814 35252 ft 502 kts 94°
2026-04-25 21:05 43.45948 -11.72212 35242 ft 502 kts 94°
2026-04-25 21:06 43.45586 -11.62603 35237 ft 502 kts 94°
2026-04-25 21:06 43.45215 -11.52987 35234 ft 503 kts 94°
2026-04-25 21:07 43.44839 -11.43422 35245 ft 503 kts 94°
2026-04-25 21:07 43.44451 -11.33798 35243 ft 502 kts 94°
2026-04-25 21:08 43.44057 -11.24194 35245 ft 502 kts 95°
2026-04-25 21:08 43.43657 -11.14657 35235 ft 501 kts 95°
2026-04-25 21:09 43.43042 -11.00335 35234 ft 500 kts 95°
2026-04-25 21:09 43.42621 -10.90756 35239 ft 500 kts 95°
2026-04-25 21:10 43.42194 -10.81241 35228 ft 499 kts 95°
2026-04-25 21:10 43.41758 -10.71681 35233 ft 499 kts 96°
2026-04-25 21:11 43.41317 -10.62209 35231 ft 499 kts 96°
2026-04-25 21:11 43.40865 -10.52662 35222 ft 499 kts 96°
2026-04-25 21:12 43.40405 -10.43113 35226 ft 500 kts 96°
2026-04-25 21:12 43.40016 -10.35173 35219 ft 500 kts 96°
2026-04-25 21:13 43.39463 -10.24062 35228 ft 501 kts 96°
2026-04-25 21:13 43.38978 -10.14502 35221 ft 501 kts 96°
2026-04-25 21:14 43.38486 -10.04958 35214 ft 500 kts 96°
2026-04-25 21:14 43.37990 -9.95480 35208 ft 499 kts 96°
2026-04-25 21:15 43.37483 -9.85962 35209 ft 499 kts 96°
2026-04-25 21:15 43.36969 -9.76446 35206 ft 497 kts 96°
2026-04-25 21:16 43.36449 -9.66974 35201 ft 496 kts 96°
2026-04-25 21:16 43.35926 -9.57593 35204 ft 494 kts 96°
2026-04-25 21:17 43.35393 -9.48172 35190 ft 494 kts 96°
2026-04-25 21:17 43.34853 -9.38752 35186 ft 493 kts 96°
2026-04-25 21:18 43.34309 -9.29408 35188 ft 493 kts 96°
2026-04-25 21:18 43.33752 -9.19986 35183 ft 494 kts 96°
2026-04-25 21:19 43.33188 -9.10564 35181 ft 494 kts 96°
2026-04-25 21:19 43.32619 -9.01186 35180 ft 494 kts 96°
2026-04-25 21:20 43.32233 -8.94889 35175 ft 494 kts 96°
2026-04-25 21:20 43.31457 -8.82416 35171 ft 493 kts 96°
2026-04-25 21:21 43.30862 -8.72997 35165 ft 493 kts 96°
2026-04-25 21:21 43.30263 -8.63660 35155 ft 493 kts 95°
2026-04-25 21:22 43.29659 -8.54334 35161 ft 493 kts 95°
2026-04-25 21:22 43.29043 -8.44953 35157 ft 493 kts 96°
2026-04-25 21:23 43.28418 -8.35566 35157 ft 493 kts 96°
2026-04-25 21:23 43.27785 -8.26164 35156 ft 494 kts 95°
2026-04-25 21:24 43.27148 -8.16816 35164 ft 495 kts 95°
2026-04-25 21:24 43.26497 -8.07380 35165 ft 496 kts 95°
2026-04-25 21:25 43.25837 -7.97924 35176 ft 496 kts 95°
2026-04-25 21:25 43.25174 -7.88546 35182 ft 497 kts 95°
2026-04-25 21:26 43.24500 -7.79109 35185 ft 496 kts 96°
2026-04-25 21:26 43.23817 -7.69667 35178 ft 496 kts 96°
2026-04-25 21:27 43.23127 -7.60244 35186 ft 496 kts 96°
2026-04-25 21:27 43.22435 -7.50892 35180 ft 495 kts 95°
2026-04-25 21:28 43.21732 -7.41470 35182 ft 495 kts 95°
2026-04-25 21:28 43.20924 -7.32142 35179 ft 494 kts 98°
2026-04-25 21:29 43.19812 -7.22835 35169 ft 494 kts 99°
2026-04-25 21:29 43.18656 -7.13562 35174 ft 493 kts 98°
2026-04-25 21:30 43.17521 -7.04355 35173 ft 492 kts 98°
2026-04-25 21:30 43.16581 -6.96671 35176 ft 492 kts 98°
2026-04-25 21:31 43.15447 -6.87417 35170 ft 491 kts 98°
2026-04-25 21:31 43.14306 -6.78176 35171 ft 491 kts 98°
2026-04-25 21:32 43.13160 -6.68959 35174 ft 490 kts 98°
2026-04-25 21:32 43.12012 -6.59804 35182 ft 490 kts 98°
2026-04-25 21:33 43.10849 -6.50591 35177 ft 490 kts 98°
2026-04-25 21:33 43.09688 -6.41443 35188 ft 490 kts 98°
2026-04-25 21:34 43.08514 -6.32267 35179 ft 489 kts 98°
2026-04-25 21:34 43.07334 -6.23092 35179 ft 489 kts 98°
2026-04-25 21:35 43.06147 -6.13929 35173 ft 488 kts 98°
2026-04-25 21:35 43.04960 -6.04831 35197 ft 487 kts 98°
2026-04-25 21:36 43.03763 -5.95707 35193 ft 486 kts 98°
2026-04-25 21:36 43.02559 -5.86595 35186 ft 485 kts 98°
2026-04-25 21:37 43.01560 -5.79075 35193 ft 484 kts 98°
2026-04-25 21:37 43.00151 -5.68530 35272 ft 484 kts 98°
2026-04-25 21:38 42.99540 -5.63987 35534 ft 485 kts 99°
2026-04-25 21:38 42.98930 -5.59458 35867 ft 483 kts 99°
2026-04-25 21:38 42.98321 -5.54951 36139 ft 483 kts 99°
2026-04-25 21:38 42.97715 -5.50479 36179 ft 487 kts 99°
2026-04-25 21:39 42.96474 -5.41375 36191 ft 484 kts 99°
2026-04-25 21:39 42.95246 -5.32428 36210 ft 479 kts 99°
2026-04-25 21:40 42.94012 -5.23490 36207 ft 478 kts 99°
2026-04-25 21:40 42.92774 -5.14567 36209 ft 477 kts 99°
2026-04-25 21:41 42.91538 -5.05712 36212 ft 477 kts 99°
2026-04-25 21:41 42.90283 -4.96774 36202 ft 478 kts 100°
2026-04-25 21:42 42.89031 -4.87902 36212 ft 479 kts 100°
2026-04-25 21:42 42.87755 -4.78928 36212 ft 481 kts 100°
2026-04-25 21:43 42.86476 -4.69985 36211 ft 483 kts 101°
2026-04-25 21:43 42.85182 -4.60992 36211 ft 484 kts 101°
2026-04-25 21:44 42.83876 -4.51957 36214 ft 485 kts 101°
2026-04-25 21:45 42.81910 -4.38461 36214 ft 486 kts 101°
2026-04-25 21:45 42.80587 -4.29448 36217 ft 486 kts 101°
2026-04-25 21:46 42.79254 -4.20413 36221 ft 486 kts 101°
2026-04-25 21:46 42.77923 -4.11454 36216 ft 485 kts 101°
2026-04-25 21:47 42.76576 -4.02433 36223 ft 485 kts 101°
2026-04-25 21:47 42.75231 -3.93472 36219 ft 485 kts 101°
2026-04-25 21:48 42.73874 -3.84481 36217 ft 484 kts 101°
2026-04-25 21:48 42.72517 -3.75542 36219 ft 485 kts 102°
2026-04-25 21:49 42.71143 -3.66544 36212 ft 485 kts 102°
2026-04-25 21:49 42.69760 -3.57540 36211 ft 486 kts 102°
2026-04-25 21:50 42.68373 -3.48551 36212 ft 486 kts 102°
2026-04-25 21:50 42.66983 -3.39601 36210 ft 487 kts 102°
2026-04-25 21:51 42.65573 -3.30565 36226 ft 488 kts 102°
2026-04-25 21:51 42.64154 -3.21526 36217 ft 490 kts 102°
2026-04-25 21:52 42.62729 -3.12495 36213 ft 491 kts 102°
2026-04-25 21:52 42.61286 -3.03398 36219 ft 492 kts 102°
2026-04-25 21:53 42.59844 -2.94355 36212 ft 492 kts 102°
2026-04-25 21:53 42.58388 -2.85278 36211 ft 492 kts 102°
2026-04-25 21:54 42.56923 -2.76192 36212 ft 492 kts 103°
2026-04-25 21:54 42.55460 -2.67171 36192 ft 491 kts 103°
2026-04-25 21:55 42.53989 -2.58140 36186 ft 490 kts 103°
2026-04-25 21:55 42.52510 -2.49115 36184 ft 489 kts 103°
2026-04-25 21:56 42.51035 -2.40160 36187 ft 488 kts 103°
2026-04-25 21:56 42.49549 -2.31179 36185 ft 488 kts 103°
2026-04-25 21:57 42.48055 -2.22202 36191 ft 487 kts 103°
2026-04-25 21:57 42.46565 -2.13293 36181 ft 487 kts 103°
2026-04-25 21:58 42.45061 -2.04341 36179 ft 486 kts 103°
2026-04-25 21:58 42.43563 -1.95466 36171 ft 486 kts 103°
2026-04-25 21:59 42.42180 -1.86492 36164 ft 486 kts 100°
2026-04-25 21:59 42.41075 -1.77514 36150 ft 486 kts 99°
2026-04-25 22:00 42.39429 -1.63980 36142 ft 486 kts 99°
2026-04-25 22:00 42.38300 -1.54970 36149 ft 485 kts 100°
2026-04-25 22:01 42.37165 -1.46025 36141 ft 484 kts 100°
2026-04-25 22:01 42.36211 -1.38554 36139 ft 484 kts 100°
2026-04-25 22:02 42.34864 -1.28061 36132 ft 484 kts 100°
2026-04-25 22:02 42.33711 -1.19137 36132 ft 483 kts 100°
2026-04-25 22:03 42.32547 -1.10187 36135 ft 483 kts 100°
2026-04-25 22:03 42.31377 -1.01246 36130 ft 483 kts 100°
2026-04-25 22:04 42.30198 -0.92293 36132 ft 483 kts 101°
2026-04-25 22:04 42.29019 -0.83398 36135 ft 483 kts 101°
2026-04-25 22:05 42.27827 -0.74455 36138 ft 482 kts 101°
2026-04-25 22:05 42.26637 -0.65585 36133 ft 483 kts 101°
2026-04-25 22:06 42.25430 -0.56644 36136 ft 483 kts 101°
2026-04-25 22:06 42.24220 -0.47734 36139 ft 484 kts 101°
2026-04-25 22:07 42.23204 -0.40294 36143 ft 484 kts 101°
2026-04-25 22:07 42.21775 -0.29881 36147 ft 485 kts 101°
2026-04-25 22:08 42.20786 -0.20872 36147 ft 485 kts 94°
2026-04-25 22:08 42.20436 -0.11820 36155 ft 485 kts 93°
2026-04-25 22:09 42.20102 -0.02707 36144 ft 485 kts 93°
2026-04-25 22:09 42.19734 0.06359 36140 ft 485 kts 94°
2026-04-25 22:10 42.19339 0.15469 36143 ft 484 kts 94°
2026-04-25 22:10 42.18937 0.24499 36146 ft 484 kts 94°
2026-04-25 22:11 42.18529 0.33528 36153 ft 483 kts 94°
2026-04-25 22:11 42.18113 0.42597 36152 ft 483 kts 94°
2026-04-25 22:12 42.17694 0.51586 36157 ft 482 kts 94°
2026-04-25 22:12 42.17408 0.57619 36157 ft 482 kts 94°
2026-04-25 22:13 42.16830 0.69655 36164 ft 482 kts 94°
2026-04-25 22:13 42.16391 0.78620 36169 ft 482 kts 94°
2026-04-25 22:14 42.15940 0.87659 36164 ft 482 kts 94°
2026-04-25 22:14 42.15484 0.96691 36172 ft 483 kts 94°
2026-04-25 22:15 42.15023 1.05666 36164 ft 483 kts 94°
2026-04-25 22:16 42.14312 1.19250 36168 ft 484 kts 94°
2026-04-25 22:16 42.13829 1.28324 36161 ft 485 kts 94°
2026-04-25 22:17 42.13307 1.37327 36163 ft 485 kts 95°
2026-04-25 22:17 42.12658 1.46371 36161 ft 485 kts 96°
2026-04-25 22:18 42.12099 1.53896 36155 ft 485 kts 96°
2026-04-25 22:18 42.11434 1.62937 36169 ft 483 kts 95°
2026-04-25 22:19 42.10776 1.71943 36162 ft 482 kts 95°
2026-04-25 22:19 42.10116 1.80927 36160 ft 481 kts 96°
2026-04-25 22:20 42.09454 1.89840 36157 ft 480 kts 96°
2026-04-25 22:20 42.08780 1.98798 36148 ft 480 kts 96°
2026-04-25 22:21 42.08103 2.07708 36153 ft 480 kts 96°
2026-04-25 22:21 42.07414 2.16673 36139 ft 480 kts 96°
2026-04-25 22:22 42.06726 2.25551 36140 ft 480 kts 96°
2026-04-25 22:22 42.06024 2.34499 36140 ft 480 kts 96°
2026-04-25 22:23 42.05315 2.43455 36132 ft 480 kts 96°
2026-04-25 22:23 42.04604 2.52347 36129 ft 480 kts 96°
2026-04-25 22:24 42.03881 2.61305 36127 ft 480 kts 96°
2026-04-25 22:24 42.03157 2.70175 36124 ft 480 kts 96°
2026-04-25 22:25 42.02422 2.79095 36124 ft 479 kts 96°
2026-04-25 22:25 42.01681 2.88010 36109 ft 480 kts 96°
2026-04-25 22:26 42.00931 2.96944 36103 ft 480 kts 96°
2026-04-25 22:26 42.00178 3.05830 36100 ft 480 kts 96°
2026-04-25 22:27 41.99413 3.14776 36102 ft 481 kts 96°
2026-04-25 22:27 41.98641 3.23728 36109 ft 482 kts 96°
2026-04-25 22:28 41.97864 3.32653 36109 ft 483 kts 96°
2026-04-25 22:28 41.97072 3.41660 36117 ft 484 kts 96°
2026-04-25 22:29 41.96279 3.50593 36114 ft 484 kts 96°
2026-04-25 22:29 41.95474 3.59595 36119 ft 484 kts 96°
2026-04-25 22:30 41.94252 3.73097 36120 ft 484 kts 96°
2026-04-25 22:30 41.93570 3.80572 36127 ft 484 kts 96°
2026-04-25 22:31 41.92949 3.91008 36108 ft 481 kts 84°
2026-04-25 22:31 41.94327 3.99727 36126 ft 476 kts 66°
2026-04-25 22:32 41.96993 4.07795 36120 ft 475 kts 64°
2026-04-25 22:32 41.99706 4.15891 36118 ft 475 kts 64°
2026-04-25 22:33 42.02362 4.24061 36126 ft 476 kts 65°
2026-04-25 22:33 42.04981 4.32190 36121 ft 476 kts 65°
2026-04-25 22:34 42.07888 4.40180 36115 ft 473 kts 56°
2026-04-25 22:34 42.11795 4.47264 36115 ft 470 kts 46°
2026-04-25 22:35 42.16235 4.53741 36119 ft 470 kts 47°
2026-04-25 22:35 42.19995 4.61010 36124 ft 473 kts 57°
2026-04-25 22:36 42.23333 4.68631 36118 ft 473 kts 58°
2026-04-25 22:36 42.26687 4.76277 36108 ft 473 kts 57°
2026-04-25 22:37 42.30046 4.83871 36109 ft 473 kts 57°
2026-04-25 22:37 42.33427 4.91497 36112 ft 473 kts 57°
2026-04-25 22:38 42.36806 4.99130 36113 ft 472 kts 58°
2026-04-25 22:38 42.40180 5.06776 36111 ft 472 kts 58°
2026-04-25 22:39 42.43547 5.14430 36105 ft 472 kts 58°
2026-04-25 22:39 42.46877 5.22018 36111 ft 471 kts 58°
2026-04-25 22:40 42.50224 5.29666 36111 ft 471 kts 58°
2026-04-25 22:40 42.53569 5.37328 36116 ft 471 kts 59°
2026-04-25 22:41 42.56903 5.44985 36107 ft 470 kts 58°
2026-04-25 22:41 42.60204 5.52586 36110 ft 469 kts 58°
2026-04-25 22:42 42.63527 5.60257 36112 ft 469 kts 59°
2026-04-25 22:42 42.66807 5.67849 36113 ft 469 kts 59°
2026-04-25 22:43 42.70113 5.75521 36121 ft 468 kts 59°
2026-04-25 22:43 42.73385 5.83135 36109 ft 467 kts 59°
2026-04-25 22:44 42.76658 5.90770 36117 ft 466 kts 59°
2026-04-25 22:44 42.79899 5.98350 36114 ft 465 kts 59°
2026-04-25 22:45 42.83159 6.05993 36116 ft 466 kts 59°
2026-04-25 22:45 42.86413 6.13643 36102 ft 466 kts 59°
2026-04-25 22:46 42.89637 6.21244 36099 ft 465 kts 60°
2026-04-25 22:46 42.92868 6.28878 36100 ft 463 kts 60°
2026-04-25 22:47 42.96084 6.36501 36100 ft 463 kts 60°
2026-04-25 22:47 42.99294 6.44125 36101 ft 463 kts 60°
2026-04-25 22:48 43.02495 6.51749 36097 ft 463 kts 60°
2026-04-25 22:48 43.05682 6.59362 36097 ft 462 kts 60°
2026-04-25 22:49 43.08847 6.66940 36094 ft 461 kts 60°
2026-04-25 22:49 43.12030 6.74581 36098 ft 460 kts 60°
2026-04-25 22:50 43.15191 6.82190 36093 ft 460 kts 60°
2026-04-25 22:50 43.18336 6.89781 36100 ft 460 kts 60°
2026-04-25 22:51 43.21493 6.97420 36103 ft 460 kts 60°
2026-04-25 22:51 43.24645 7.05068 36099 ft 460 kts 60°
2026-04-25 22:52 43.27770 7.12671 36100 ft 459 kts 60°
2026-04-25 22:52 43.30378 7.19030 36096 ft 459 kts 60°
2026-04-25 22:53 43.34029 7.27957 36103 ft 458 kts 61°
2026-04-25 22:53 43.37156 7.35623 36103 ft 458 kts 61°
2026-04-25 22:54 43.40257 7.43248 36096 ft 459 kts 61°
2026-04-25 22:54 43.43383 7.50954 36108 ft 461 kts 61°
2026-04-25 22:55 43.46492 7.58641 36116 ft 462 kts 61°
2026-04-25 22:55 43.49649 7.66466 36123 ft 475 kts 59°
2026-04-25 22:56 43.52908 7.74559 36127 ft 487 kts 60°
2026-04-25 22:56 43.56406 7.82551 36117 ft 486 kts 52°
2026-04-25 22:57 43.60751 7.89587 36124 ft 483 kts 47°
2026-04-25 22:57 43.65204 7.96548 36113 ft 482 kts 47°
2026-04-25 22:58 43.69610 8.03516 36116 ft 480 kts 47°
2026-04-25 22:58 43.73948 8.10447 36116 ft 479 kts 47°
2026-04-25 22:59 43.78294 8.17423 36116 ft 478 kts 47°
2026-04-25 22:59 43.82642 8.24420 36120 ft 478 kts 47°
2026-04-25 23:00 43.86953 8.31370 36120 ft 478 kts 47°
2026-04-25 23:00 43.91281 8.38366 36129 ft 478 kts 47°
2026-04-25 23:01 43.94889 8.44209 36127 ft 478 kts 47°
2026-04-25 23:01 43.99222 8.51243 36122 ft 479 kts 47°
2026-04-25 23:02 44.04251 8.59428 36123 ft 479 kts 48°
2026-04-25 23:02 44.07877 8.65345 36122 ft 479 kts 48°
2026-04-25 23:03 44.12174 8.72373 36131 ft 479 kts 48°
2026-04-25 23:03 44.16497 8.79460 36123 ft 479 kts 48°
2026-04-25 23:04 44.20824 8.86571 36121 ft 479 kts 48°
2026-04-25 23:04 44.25113 8.93636 36127 ft 479 kts 48°
2026-04-25 23:05 44.29419 9.00749 36130 ft 479 kts 48°
2026-04-25 23:05 44.33699 9.07835 36110 ft 479 kts 48°
2026-04-25 23:06 44.38005 9.14984 36119 ft 479 kts 48°
2026-04-25 23:06 44.42272 9.22084 36119 ft 479 kts 48°
2026-04-25 23:07 44.46562 9.29240 36138 ft 479 kts 48°
2026-04-25 23:07 44.50826 9.36371 36125 ft 479 kts 48°
2026-04-25 23:08 44.55111 9.43555 36127 ft 479 kts 48°
2026-04-25 23:08 44.59361 9.50699 36132 ft 479 kts 48°
2026-04-25 23:09 44.63634 9.57901 36123 ft 479 kts 48°
2026-04-25 23:09 44.67903 9.65111 36110 ft 479 kts 48°
2026-04-25 23:10 44.72136 9.72281 36108 ft 479 kts 48°
2026-04-25 23:10 44.76392 9.79505 36091 ft 478 kts 48°
2026-04-25 23:11 44.80640 9.86737 36077 ft 478 kts 48°
2026-04-25 23:11 44.84858 9.93937 36084 ft 478 kts 48°
2026-04-25 23:12 44.89092 10.01182 36055 ft 477 kts 48°
2026-04-25 23:12 44.93292 10.08386 36059 ft 476 kts 48°
2026-04-25 23:13 44.97502 10.15626 36058 ft 476 kts 48°
2026-04-25 23:13 45.01706 10.22873 36052 ft 476 kts 48°
2026-04-25 23:14 45.05872 10.30069 36041 ft 476 kts 48°
2026-04-25 23:14 45.10069 10.37337 36048 ft 476 kts 48°
2026-04-25 23:15 45.14258 10.44614 36044 ft 477 kts 47°
2026-04-25 23:15 45.18427 10.51874 36039 ft 477 kts 48°
2026-04-25 23:16 45.22620 10.59198 36058 ft 478 kts 48°
2026-04-25 23:16 45.26822 10.66554 36045 ft 479 kts 48°
2026-04-25 23:17 45.30990 10.73872 36060 ft 479 kts 48°
2026-04-25 23:17 45.35193 10.81270 36050 ft 479 kts 48°
2026-04-25 23:18 45.39383 10.88664 36050 ft 479 kts 48°
2026-04-25 23:18 45.43536 10.96012 36049 ft 479 kts 48°
2026-04-25 23:19 45.47720 11.03433 36058 ft 479 kts 48°
2026-04-25 23:19 45.51902 11.10871 36052 ft 480 kts 48°
2026-04-25 23:20 45.56053 11.18273 36051 ft 480 kts 48°
2026-04-25 23:20 45.60222 11.25729 36051 ft 480 kts 48°
2026-04-25 23:21 45.64390 11.33201 36064 ft 480 kts 48°
2026-04-25 23:21 45.68519 11.40623 36057 ft 479 kts 48°
2026-04-25 23:22 45.72668 11.48100 36055 ft 479 kts 48°
2026-04-25 23:23 45.78853 11.59285 36061 ft 478 kts 48°
2026-04-25 23:23 45.82974 11.66761 36058 ft 478 kts 49°
2026-04-25 23:24 45.87090 11.74248 36056 ft 478 kts 49°
2026-04-25 23:24 45.91184 11.81717 36067 ft 478 kts 49°
2026-04-25 23:25 45.95304 11.89251 36074 ft 479 kts 48°
2026-04-25 23:25 45.99430 11.96817 36061 ft 479 kts 49°
2026-04-25 23:26 46.03514 12.04328 36068 ft 480 kts 49°
2026-04-25 23:26 46.07632 12.11917 36059 ft 480 kts 49°
2026-04-25 23:27 46.11751 12.19531 36067 ft 481 kts 49°
2026-04-25 23:27 46.15843 12.27120 36074 ft 481 kts 49°
2026-04-25 23:28 46.19957 12.34767 36068 ft 481 kts 49°
2026-04-25 23:28 46.24045 12.42391 36075 ft 481 kts 49°
2026-04-25 23:29 46.28152 12.50063 36080 ft 481 kts 49°
2026-04-25 23:29 46.32226 12.57695 36067 ft 482 kts 49°
2026-04-25 23:30 46.36310 12.65375 36070 ft 481 kts 49°
2026-04-25 23:30 46.40397 12.73076 36063 ft 481 kts 49°
2026-04-25 23:31 46.44475 12.80781 36086 ft 480 kts 49°
2026-04-25 23:31 46.48508 12.88432 36075 ft 480 kts 49°
2026-04-25 23:32 46.52565 12.96133 36073 ft 480 kts 49°
2026-04-25 23:32 46.56608 13.03837 36091 ft 479 kts 49°
2026-04-25 23:33 46.60646 13.11555 36083 ft 480 kts 49°
2026-04-25 23:33 46.64286 13.19691 36088 ft 485 kts 60°
2026-04-25 23:34 46.66893 13.28823 36088 ft 488 kts 66°
2026-04-25 23:34 46.69311 13.38022 36084 ft 488 kts 66°
2026-04-25 23:35 46.71758 13.47253 36077 ft 488 kts 65°
2026-04-25 23:35 46.74225 13.56486 36074 ft 488 kts 65°
2026-04-25 23:36 46.76692 13.65719 36082 ft 488 kts 65°
2026-04-25 23:36 46.79149 13.74945 36073 ft 489 kts 65°
2026-04-25 23:37 46.81593 13.84171 36073 ft 488 kts 65°
2026-04-25 23:37 46.84035 13.93428 36071 ft 487 kts 65°
2026-04-25 23:38 46.86465 14.02676 36073 ft 487 kts 65°
2026-04-25 23:38 46.88872 14.11872 36075 ft 486 kts 66°
2026-04-25 23:39 46.91283 14.21117 35899 ft 485 kts 66°
2026-04-25 23:39 46.92480 14.25724 35567 ft 486 kts 66°
2026-04-25 23:39 46.93689 14.30381 35152 ft 489 kts 65°
2026-04-25 23:39 46.94884 14.34993 34763 ft 491 kts 66°
2026-04-25 23:40 46.96095 14.39676 34394 ft 492 kts 66°
2026-04-25 23:40 46.97307 14.44379 34032 ft 493 kts 66°
2026-04-25 23:40 46.98519 14.49087 33649 ft 492 kts 65°
2026-04-25 23:40 46.99710 14.53729 33304 ft 492 kts 66°
2026-04-25 23:41 47.00914 14.58430 32892 ft 492 kts 66°
2026-04-25 23:41 47.02118 14.63135 32476 ft 492 kts 66°
2026-04-25 23:41 47.03292 14.67733 32055 ft 492 kts 66°
2026-04-25 23:41 47.04514 14.72531 31609 ft 492 kts 66°
2026-04-25 23:42 47.05696 14.77183 31185 ft 492 kts 66°
2026-04-25 23:42 47.06892 14.81899 30749 ft 491 kts 66°
2026-04-25 23:42 47.08075 14.86590 30400 ft 488 kts 66°
2026-04-25 23:42 47.09249 14.91259 30050 ft 486 kts 66°
2026-04-25 23:43 47.10421 14.95926 29717 ft 484 kts 66°
2026-04-25 23:43 47.11583 15.00550 29368 ft 482 kts 66°
2026-04-25 23:43 47.12743 15.05177 28990 ft 481 kts 66°
2026-04-25 23:43 47.13884 15.09729 28655 ft 479 kts 66°
2026-04-25 23:44 47.15030 15.14311 28415 ft 470 kts 66°
2026-04-25 23:44 47.16124 15.18709 28172 ft 450 kts 66°
2026-04-25 23:44 47.17187 15.22985 27663 ft 438 kts 66°
2026-04-25 23:44 47.18215 15.27119 26977 ft 432 kts 66°
2026-04-25 23:45 47.19266 15.31338 26377 ft 441 kts 67°
2026-04-25 23:45 47.20322 15.35581 26190 ft 440 kts 67°
2026-04-25 23:45 47.21358 15.39765 26085 ft 425 kts 67°
2026-04-25 23:45 47.22337 15.43747 25652 ft 404 kts 67°
2026-04-25 23:46 47.23278 15.47573 24949 ft 405 kts 66°
2026-04-25 23:46 47.24238 15.51461 24552 ft 402 kts 66°
2026-04-25 23:46 47.25194 15.55343 24159 ft 400 kts 66°
2026-04-25 23:46 47.26137 15.59180 23745 ft 398 kts 67°
2026-04-25 23:47 47.27076 15.63013 23241 ft 398 kts 67°
2026-04-25 23:47 47.28008 15.66826 22784 ft 395 kts 67°
2026-04-25 23:47 47.28922 15.70578 22343 ft 388 kts 67°
2026-04-25 23:47 47.29532 15.73086 21894 ft 383 kts 67°
2026-04-25 23:48 47.30720 15.77971 20978 ft 378 kts 67°
2026-04-25 23:48 47.31307 15.80387 20584 ft 379 kts 67°
2026-04-25 23:48 47.32201 15.84063 20092 ft 382 kts 67°
2026-04-25 23:48 47.33384 15.88949 19658 ft 379 kts 67°
2026-04-25 23:49 47.33982 15.91421 19387 ft 379 kts 67°
2026-04-25 23:49 47.34863 15.95072 18984 ft 378 kts 67°
2026-04-25 23:49 47.35745 15.98724 18598 ft 374 kts 65°
2026-04-25 23:49 47.36887 16.02111 18169 ft 365 kts 51°
2026-04-25 23:50 47.38455 16.04939 17913 ft 355 kts 41°
2026-04-25 23:50 47.40256 16.07381 17556 ft 350 kts 34°
2026-04-25 23:50 47.42142 16.09673 17175 ft 352 kts 34°
2026-04-25 23:50 47.44046 16.11968 16791 ft 354 kts 34°
2026-04-25 23:51 47.45955 16.14271 16420 ft 354 kts 34°
2026-04-25 23:51 47.47865 16.16584 16015 ft 354 kts 35°
2026-04-25 23:51 47.49763 16.18893 15637 ft 352 kts 35°
2026-04-25 23:51 47.51653 16.21200 15279 ft 350 kts 35°
2026-04-25 23:52 47.53498 16.23459 14899 ft 347 kts 35°
2026-04-25 23:52 47.55357 16.25741 14543 ft 344 kts 35°
2026-04-25 23:52 47.57199 16.28004 14188 ft 342 kts 35°
2026-04-25 23:52 47.59005 16.30225 13837 ft 340 kts 35°
2026-04-25 23:53 47.60821 16.32460 13412 ft 337 kts 35°
2026-04-25 23:53 47.62627 16.34684 13026 ft 335 kts 35°
2026-04-25 23:53 47.64411 16.36886 12646 ft 332 kts 35°
2026-04-25 23:53 47.66166 16.39052 12347 ft 328 kts 35°
2026-04-25 23:54 47.67909 16.41207 12104 ft 322 kts 35°
2026-04-25 23:54 47.69614 16.43317 12035 ft 316 kts 35°
2026-04-25 23:54 47.71277 16.45376 11987 ft 305 kts 35°
2026-04-25 23:54 47.72877 16.47361 11938 ft 294 kts 35°
2026-04-25 23:55 47.74420 16.49277 11861 ft 283 kts 34°
2026-04-25 23:55 47.75909 16.51125 11707 ft 274 kts 34°
2026-04-25 23:55 47.77356 16.52920 11554 ft 267 kts 34°
2026-04-25 23:55 47.78754 16.54653 11265 ft 264 kts 34°
2026-04-25 23:56 47.80166 16.56405 10915 ft 264 kts 34°
2026-04-25 23:56 47.81572 16.58152 10590 ft 262 kts 34°
2026-04-25 23:56 47.82967 16.59889 10283 ft 260 kts 34°
2026-04-25 23:56 47.84353 16.61617 9970 ft 259 kts 34°
2026-04-25 23:57 47.85716 16.63356 9609 ft 257 kts 40°
2026-04-25 23:57 47.86649 16.65661 9084 ft 268 kts 67°
2026-04-25 23:57 47.87207 16.68305 8595 ft 272 kts 67°
2026-04-25 23:57 47.87796 16.70972 8313 ft 268 kts 67°
2026-04-25 23:58 47.88372 16.73594 8027 ft 265 kts 67°
2026-04-25 23:58 47.88940 16.76201 7729 ft 264 kts 67°
2026-04-25 23:58 47.89502 16.78806 7401 ft 263 kts 67°
2026-04-25 23:58 47.90051 16.81373 7024 ft 257 kts 67°
2026-04-25 23:59 47.90655 16.83860 6479 ft 251 kts 54°
2026-04-25 23:59 47.91769 16.85688 5926 ft 236 kts 27°
2026-04-25 23:59 47.93141 16.87009 5405 ft 235 kts 25°
2026-04-25 23:59 47.94528 16.88280 4955 ft 229 kts 17°
2026-04-26 00:00 47.96004 16.88691 4492 ft 208 kts 345°
2026-04-26 00:00 47.97268 16.87902 4194 ft 191 kts 326°
2026-04-26 00:00 47.98382 16.86870 3953 ft 186 kts 326°
2026-04-26 00:00 47.99453 16.85874 3839 ft 181 kts 326°
2026-04-26 00:01 48.00540 16.84858 3793 ft 186 kts 325°
2026-04-26 00:01 48.01639 16.83818 3640 ft 185 kts 323°
2026-04-26 00:01 48.02481 16.82432 3476 ft 179 kts 303°
2026-04-26 00:01 48.03125 16.80918 3374 ft 170 kts 304°
2026-04-26 00:02 48.03706 16.79453 3246 ft 159 kts 301°
2026-04-26 00:02 48.04225 16.77982 3133 ft 160 kts 300°
2026-04-26 00:02 48.04721 16.76501 3069 ft 158 kts 299°
2026-04-26 00:02 48.05194 16.75063 3000 ft 149 kts 299°
2026-04-26 00:03 48.05631 16.73723 2938 ft 144 kts 300°
2026-04-26 00:03 48.06067 16.72389 2840 ft 141 kts 299°
2026-04-26 00:03 48.06555 16.70913 2678 ft 158 kts 299°
2026-04-26 00:03 48.07030 16.69463 2268 ft 151 kts 297°
2026-04-26 00:04 48.07456 16.68164 2069 ft 130 kts 297°
2026-04-26 00:04 48.07858 16.66913 1813 ft 135 kts 296°
2026-04-26 00:04 48.08244 16.65670 1647 ft 129 kts 295°
2026-04-26 00:04 48.08574 16.64461 1435 ft 120 kts 296°
2026-04-26 00:05 48.08980 16.63341 1422 ft 126 kts 300°
2026-04-26 00:05 48.09385 16.62171 1283 ft 128 kts 299°
2026-04-26 00:05 48.09799 16.60937 1112 ft 134 kts 297°
2026-04-26 00:05 48.10205 16.59695 922 ft 134 kts 297°
2026-04-26 00:06 48.10619 16.58433 773 ft 140 kts 295°
2026-04-26 00:06 48.11051 16.57121 622 ft 136 kts 295°
2026-04-26 00:06 48.11409 16.56014 621 ft 85 kts 296°
2026-04-26 00:06 48.11562 16.55544 625 ft 39 kts 296°
2026-04-26 00:07 48.11693 16.55300 628 ft 25 kts 316°
2026-04-26 00:07 48.11779 16.55178 621 ft 8 kts 321°
2026-04-26 00:07 48.11799 16.55160 614 ft 2 kts 335°
2026-04-26 00:07 48.11814 16.55151 614 ft 2 kts 336°
2026-04-26 00:08 48.11826 16.55145 614 ft 2 kts 344°
2026-04-26 00:08 48.11857 16.55145 627 ft 11 kts
2026-04-26 00:08 48.11924 16.55184 625 ft 10 kts 22°
2026-04-26 00:08 48.11980 16.55152 623 ft 10 kts 303°
2026-04-26 00:09 48.12010 16.55060 624 ft 10 kts 296°
2026-04-26 00:09 48.12040 16.54968 625 ft 10 kts 296°
2026-04-26 00:09 48.12070 16.54877 613 ft 10 kts 296°
2026-04-26 00:09 48.12098 16.54802 621 ft 3 kts 317°
2026-04-26 00:10 48.12122 16.54803 623 ft 4 kts
2026-04-26 00:10 48.12148 16.54816 613 ft 3 kts 23°
2026-04-26 00:10 48.12167 16.54830 616 ft 3 kts 25°
2026-04-26 00:10 48.12180 16.54839 622 ft 0 kts 26°